Observation data for Lomax on 12/09/2018      Previous  Date       Current Mesonet Observations  Soil Data  Daily Summary Page  Observations in Plain Language
KLO1 090600Z 33003KT 03/01 A3032 RMK A01 T00250013  RH  092%=      5-min Rain = 0
KLO1 090601Z 34003KT 02/01 A3032 RMK A01 T00240013  RH  092%=      5-min Rain = 0
KLO1 090602Z 34003KT 02/01 A3032 RMK A01 T00240013  RH  092%=      5-min Rain = 0
KLO1 090603Z 33003KT 02/01 A3032 RMK A01 T00240013  RH  092%=      5-min Rain = 0
KLO1 090604Z 34003KT 02/01 A3032 RMK A01 T00230012  RH  093%=      5-min Rain = 0
KLO1 090605Z 34004KT 02/01 A3032 RMK A01 T00230013  RH  093%=      5-min Rain = 0
KLO1 090606Z 34004KT 02/01 A3032 RMK A01 T00230012  RH  093%=      5-min Rain = 0
KLO1 090607Z 34004KT 02/01 A3032 RMK A01 T00230012  RH  092%=      5-min Rain = 0
KLO1 090608Z 34004KT 02/01 A3032 RMK A01 T00220011  RH  092%=      5-min Rain = 0
KLO1 090609Z 34004KT 02/01 A3032 RMK A01 T00220011  RH  092%=      5-min Rain = 0
KLO1 090610Z 34004KT 02/01 A3032 RMK A01 T00220011  RH  093%=      5-min Rain = 0
KLO1 090611Z 34004KT 02/01 A3032 RMK A01 T00210011  RH  093%=      5-min Rain = 0
KLO1 090612Z 34004KT 02/01 A3032 RMK A01 T00210011  RH  093%=      5-min Rain = 0
KLO1 090613Z 34004KT 02/01 A3032 RMK A01 T00210010  RH  093%=      5-min Rain = 0
KLO1 090614Z 34005KT 02/01 A3032 RMK A01 T00210010  RH  093%=      5-min Rain = 0
KLO1 090615Z 34005KT 02/01 A3032 RMK A01 T00200010  RH  093%=      5-min Rain = 0
KLO1 090616Z 34004KT 02/01 A3032 RMK A01 T00200010  RH  093%=      5-min Rain = 0
KLO1 090617Z 34004KT 02/01 A3032 RMK A01 T00190009  RH  093%=      5-min Rain = 0
KLO1 090618Z 34004KT 02/01 A3032 RMK A01 T00190009  RH  093%=      5-min Rain = 0
KLO1 090619Z 35004KT 02/01 A3032 RMK A01 T00190008  RH  093%=      5-min Rain = 0
KLO1 090620Z 35005KT 02/01 A3032 RMK A01 T00190008  RH  093%=      5-min Rain = 0
KLO1 090621Z 34005KT 02/01 A3032 RMK A01 T00180008  RH  093%=      5-min Rain = 0
KLO1 090622Z 35005KT 02/01 A3032 RMK A01 T00180008  RH  093%=      5-min Rain = 0
KLO1 090623Z 35005KT 02/01 A3032 RMK A01 T00180007  RH  093%=      5-min Rain = 0
KLO1 090624Z 35005KT 02/01 A3032 RMK A01 T00170006  RH  093%=      5-min Rain = 0
KLO1 090625Z 35005KT 02/01 A3032 RMK A01 T00170006  RH  093%=      5-min Rain = 0
KLO1 090626Z 35005KT 02/01 A3032 RMK A01 T00160006  RH  093%=      5-min Rain = 0
KLO1 090627Z 35005KT 02/01 A3032 RMK A01 T00160005  RH  092%=      5-min Rain = 0
KLO1 090628Z 35005KT 02/01 A3032 RMK A01 T00160005  RH  092%=      5-min Rain = 0
KLO1 090629Z 35005KT 02/01 A3032 RMK A01 T00160005  RH  093%=      5-min Rain = 0
KLO1 090630Z 35005KT 02/01 A3032 RMK A01 T00160005  RH  093%=      5-min Rain = 0
KLO1 090631Z 35005KT 02/01 A3032 RMK A01 T00160005  RH  093%=      5-min Rain = 0
KLO1 090632Z 35006KT 02/01 A3032 RMK A01 T00150005  RH  093%=      5-min Rain = 0
KLO1 090633Z 35006KT 02/01 A3032 RMK A01 T00150005  RH  093%=      5-min Rain = 0
KLO1 090634Z 35006KT 02/01 A3031 RMK A01 T00160005  RH  093%=      5-min Rain = 0
KLO1 090635Z 34005KT 02/00 A3031 RMK A01 T00150004  RH  092%=      5-min Rain = 0
KLO1 090636Z 34005KT 02/00 A3031 RMK A01 T00150003  RH  092%=      5-min Rain = 0
KLO1 090637Z 34005KT 01/00 A3031 RMK A01 T00140002  RH  092%=      5-min Rain = 0
KLO1 090638Z 35005KT 01/00 A3031 RMK A01 T00130002  RH  092%=      5-min Rain = 0
KLO1 090639Z 34005KT 01/00 A3031 RMK A01 T00120001  RH  092%=      5-min Rain = 0
KLO1 090640Z 34005KT 01/00 A3031 RMK A01 T00120001  RH  092%=      5-min Rain = 0
KLO1 090641Z 34005KT 01/00 A3031 RMK A01 T00120001  RH  093%=      5-min Rain = 0
KLO1 090642Z 34004KT 01/00 A3031 RMK A01 T00120001  RH  093%=      5-min Rain = 0
KLO1 090643Z 34005KT 01/00 A3031 RMK A01 T00110001  RH  093%=      5-min Rain = 0
KLO1 090644Z 35004KT 01/00 A3031 RMK A01 T00110001  RH  093%=      5-min Rain = 0
KLO1 090645Z 34004KT 01/00 A3031 RMK A01 T00110001  RH  093%=      5-min Rain = 0
KLO1 090646Z 34004KT 01/00 A3031 RMK A01 T00110001  RH  093%=      5-min Rain = 0
KLO1 090647Z 34005KT 01/00 A3031 RMK A01 T00100000  RH  093%=      5-min Rain = 0
KLO1 090648Z 34005KT 01/00 A3031 RMK A01 T00100000  RH  093%=      5-min Rain = 0
KLO1 090649Z 34005KT 01/00 A3031 RMK A01 T001000-0  RH  093%=      5-min Rain = 0
KLO1 090650Z 34005KT 01/00 A3031 RMK A01 T001000-0  RH  093%=      5-min Rain = 0
KLO1 090651Z 34005KT 01/M00 A3031 RMK A01 T00091001  RH  093%=      5-min Rain = 0
KLO1 090652Z 34005KT 01/M00 A3031 RMK A01 T00091001  RH  093%=      5-min Rain = 0
KLO1 090653Z 33005KT 01/M00 A3031 RMK A01 T00091001  RH  093%=      5-min Rain = 0
KLO1 090654Z 33005KT 01/M00 A3031 RMK A01 T00091001  RH  093%=      5-min Rain = 0
KLO1 090655Z 33005KT 01/M00 A3031 RMK A01 T00091001  RH  094%=      5-min Rain = 0
KLO1 090656Z 33004KT 01/M00 A3031 RMK A01 T00091001  RH  094%=      5-min Rain = 0
KLO1 090657Z 33005KT 01/00 A3031 RMK A01 T000900-0  RH  094%=      5-min Rain = 0
KLO1 090658Z 34005KT 01/00 A3031 RMK A01 T00090000  RH  094%=      5-min Rain = 0
KLO1 090659Z 33005KT 01/00 A3031 RMK A01 T00090000  RH  094%=      5-min Rain = 0
KLO1 090700Z 34005KT 01/00 A3031 RMK A01 T000900-0  RH  094%=      5-min Rain = 0
KLO1 090701Z 33005KT 01/00 A3031 RMK A01 T00090000  RH  094%=      5-min Rain = 0
KLO1 090702Z 33005KT 01/00 A3031 RMK A01 T000900-0  RH  094%=      5-min Rain = 0
KLO1 090703Z 34005KT 01/M00 A3031 RMK A01 T00081001  RH  094%=      5-min Rain = 0
KLO1 090704Z 33005KT 01/M00 A3031 RMK A01 T00081001  RH  094%=      5-min Rain = 0
KLO1 090705Z 33005KT 01/M00 A3031 RMK A01 T00081001  RH  094%=      5-min Rain = 0
KLO1 090706Z 33005KT 01/M00 A3031 RMK A01 T00081002  RH  094%=      5-min Rain = 0
KLO1 090707Z 34005KT 01/M00 A3031 RMK A01 T00071002  RH  094%=      5-min Rain = 0
KLO1 090708Z 34006KT 01/M00 A3031 RMK A01 T00071002  RH  094%=      5-min Rain = 0
KLO1 090709Z 34006KT 01/M00 A3031 RMK A01 T00071002  RH  094%=      5-min Rain = 0
KLO1 090710Z 34006KT 01/M00 A3031 RMK A01 T00071002  RH  094%=      5-min Rain = 0
KLO1 090711Z 34005KT 01/M00 A3031 RMK A01 T00071002  RH  094%=      5-min Rain = 0
KLO1 090712Z 34005KT 01/M00 A3031 RMK A01 T00071002  RH  094%=      5-min Rain = 0
KLO1 090713Z 34005KT 01/M00 A3031 RMK A01 T00071002  RH  094%=      5-min Rain = 0
KLO1 090714Z 34005KT 01/M00 A3031 RMK A01 T00071002  RH  094%=      5-min Rain = 0
KLO1 090715Z 35005KT 01/M00 A3031 RMK A01 T00071002  RH  094%=      5-min Rain = 0
KLO1 090716Z 34005KT 01/M00 A3031 RMK A01 T00071002  RH  094%=      5-min Rain = 0
KLO1 090717Z 34005KT 01/M00 A303 RMK A01 T00071002  RH  094%=      5-min Rain = 0
KLO1 090718Z 35005KT 01/M00 A303 RMK A01 T00071002  RH  094%=      5-min Rain = 0
KLO1 090719Z 35006KT 01/M00 A303 RMK A01 T00071002  RH  094%=      5-min Rain = 0
KLO1 090720Z 35006KT 01/M00 A303 RMK A01 T00071001  RH  094%=      5-min Rain = 0
KLO1 090721Z 35006KT 01/M00 A303 RMK A01 T00081001  RH  094%=      5-min Rain = 0
KLO1 090722Z 35005KT 01/00 A303 RMK A01 T00080000  RH  094%=      5-min Rain = 0
KLO1 090723Z 35005KT 01/00 A303 RMK A01 T00080000  RH  094%=      5-min Rain = 0
KLO1 090724Z 35005KT 01/00 A303 RMK A01 T00080000  RH  094%=      5-min Rain = 0
KLO1 090725Z 35005KT 01/00 A303 RMK A01 T00090000  RH  094%=      5-min Rain = 0
KLO1 090726Z 36005KT 01/00 A303 RMK A01 T00090000  RH  094%=      5-min Rain = 0
KLO1 090727Z 36004KT 01/00 A303 RMK A01 T00090000  RH  094%=      5-min Rain = 0
KLO1 090728Z 36004KT 01/00 A303 RMK A01 T000900-0  RH  094%=      5-min Rain = 0
KLO1 090729Z 36003KT 01/00 A303 RMK A01 T000900-0  RH  094%=      5-min Rain = 0
KLO1 090730Z 35004KT 01/M00 A303 RMK A01 T00081001  RH  094%=      5-min Rain = 0
KLO1 090731Z 35004KT 01/M00 A303 RMK A01 T00081001  RH  094%=      5-min Rain = 0
KLO1 090732Z 34003KT 01/M00 A303 RMK A01 T00081001  RH  094%=      5-min Rain = 0
KLO1 090733Z 34003KT 01/M00 A303 RMK A01 T00081001  RH  094%=      5-min Rain = 0
KLO1 090734Z 34003KT 01/M00 A303 RMK A01 T00071002  RH  094%=      5-min Rain = 0
KLO1 090735Z 34003KT 01/M00 A303 RMK A01 T00061004  RH  093%=      5-min Rain = 0
KLO1 090736Z 34003KT 00/M01 A303 RMK A01 T00041005  RH  093%=      5-min Rain = 0
KLO1 090737Z 34003KT 00/M01 A303 RMK A01 T00041006  RH  093%=      5-min Rain = 0
KLO1 090738Z 34003KT 00/M01 A303 RMK A01 T00041006  RH  094%=      5-min Rain = 0
KLO1 090739Z 34003KT 00/M01 A303 RMK A01 T00031006  RH  094%=      5-min Rain = 0
KLO1 090740Z 34003KT 00/M01 A303 RMK A01 T00031006  RH  094%=      5-min Rain = 0
KLO1 090741Z 34003KT 00/M01 A303 RMK A01 T00021007  RH  094%=      5-min Rain = 0
KLO1 090742Z 34003KT 00/M01 A303 RMK A01 T00021007  RH  094%=      5-min Rain = 0
KLO1 090743Z 34003KT 00/M01 A303 RMK A01 T00021006  RH  094%=      5-min Rain = 0
KLO1 090744Z 35003KT 00/M01 A303 RMK A01 T00021007  RH  094%=      5-min Rain = 0
KLO1 090745Z 35003KT 00/M01 A303 RMK A01 T00021007  RH  094%=      5-min Rain = 0
KLO1 090746Z 35003KT 00/M01 A303 RMK A01 T00021007  RH  094%=      5-min Rain = 0
KLO1 090747Z 35003KT 00/M01 A303 RMK A01 T00021006  RH  094%=      5-min Rain = 0
KLO1 090748Z 35003KT 00/M01 A303 RMK A01 T00021006  RH  094%=      5-min Rain = 0
KLO1 090749Z 35003KT 00/M01 A303 RMK A01 T00021006  RH  094%=      5-min Rain = 0
KLO1 090750Z 34004KT 00/M01 A303 RMK A01 T00021005  RH  095%=      5-min Rain = 0
KLO1 090751Z 35004KT 00/M01 A303 RMK A01 T00031005  RH  095%=      5-min Rain = 0
KLO1 090752Z 35004KT 00/M01 A303 RMK A01 T00031005  RH  095%=      5-min Rain = 0
KLO1 090753Z 35004KT 00/M01 A303 RMK A01 T00031005  RH  095%=      5-min Rain = 0
KLO1 090754Z 35004KT 00/M01 A303 RMK A01 T00031005  RH  095%=      5-min Rain = 0
KLO1 090755Z 35004KT 00/M00 A303 RMK A01 T00031004  RH  095%=      5-min Rain = 0
KLO1 090756Z 35004KT 00/M00 A303 RMK A01 T00031004  RH  095%=      5-min Rain = 0
KLO1 090757Z 35003KT 00/M00 A303 RMK A01 T00031004  RH  095%=      5-min Rain = 0
KLO1 090758Z 35003KT 00/M00 A303 RMK A01 T00031004  RH  095%=      5-min Rain = 0
KLO1 090759Z 35003KT 00/M00 A303 RMK A01 T00031004  RH  095%=      5-min Rain = 0
KLO1 090800Z 35003KT 00/M01 A303 RMK A01 T00031005  RH  095%=      5-min Rain = 0
KLO1 090801Z 35003KT 00/M01 A3029 RMK A01 T00031005  RH  095%=      5-min Rain = 0
KLO1 090802Z 35003KT 00/M01 A3029 RMK A01 T00021005  RH  095%=      5-min Rain = 0
KLO1 090803Z 35003KT 00/M01 A3029 RMK A01 T00021006  RH  095%=      5-min Rain = 0
KLO1 090804Z 34003KT 00/M01 A303 RMK A01 T00021006  RH  095%=      5-min Rain = 0
KLO1 090805Z 34003KT 00/M01 A303 RMK A01 T00011007  RH  095%=      5-min Rain = 0
KLO1 090806Z 34003KT 00/01 A303 RMK A01 T000000-8  RH  094%=      5-min Rain = 0
KLO1 090807Z 34004KT 00/01 A303 RMK A01 T00-000-8  RH  094%=      5-min Rain = 0
KLO1 090808Z 34004KT 00/01 A303 RMK A01 T00-000-8  RH  095%=      5-min Rain = 0
KLO1 090809Z 34004KT M00/M01 A303 RMK A01 T10011009  RH  095%=      5-min Rain = 0
KLO1 090810Z 34004KT M00/M01 A303 RMK A01 T10011008  RH  095%=      5-min Rain = 0
KLO1 090811Z 33004KT M00/M01 A303 RMK A01 T10011008  RH  095%=      5-min Rain = 0
KLO1 090812Z 33004KT M00/M01 A303 RMK A01 T10011009  RH  095%=      5-min Rain = 0
KLO1 090813Z 34004KT M00/M01 A303 RMK A01 T10011009  RH  095%=      5-min Rain = 0
KLO1 090814Z 34004KT M00/M01 A303 RMK A01 T10021009  RH  095%=      5-min Rain = 0
KLO1 090815Z 34004KT M00/M01 A303 RMK A01 T10011008  RH  095%=      5-min Rain = 0
KLO1 090816Z 34004KT M00/M01 A303 RMK A01 T10011009  RH  095%=      5-min Rain = 0
KLO1 090817Z 34004KT M00/M01 A303 RMK A01 T10021009  RH  095%=      5-min Rain = 0
KLO1 090818Z 33004KT M00/M01 A303 RMK A01 T10021009  RH  095%=      5-min Rain = 0
KLO1 090819Z 33004KT M00/M01 A303 RMK A01 T10021009  RH  095%=      5-min Rain = 0
KLO1 090820Z 33004KT M00/M01 A303 RMK A01 T10021009  RH  095%=      5-min Rain = 0
KLO1 090821Z 33003KT M00/M01 A303 RMK A01 T10021009  RH  095%=      5-min Rain = 0
KLO1 090822Z 32004KT M00/M01 A303 RMK A01 T10021009  RH  095%=      5-min Rain = 0
KLO1 090823Z 32003KT M00/M01 A303 RMK A01 T10031010  RH  095%=      5-min Rain = 0
KLO1 090824Z 32003KT M00/M01 A303 RMK A01 T10031010  RH  095%=      5-min Rain = 0
KLO1 090825Z 32003KT M00/M01 A303 RMK A01 T10031010  RH  095%=      5-min Rain = 0
KLO1 090826Z 32003KT M00/M01 A303 RMK A01 T10031010  RH  095%=      5-min Rain = 0
KLO1 090827Z 32003KT M00/M01 A303 RMK A01 T10031010  RH  095%=      5-min Rain = 0
KLO1 090828Z 32003KT M00/M01 A303 RMK A01 T10031010  RH  095%=      5-min Rain = 0
KLO1 090829Z 31003KT M00/M01 A303 RMK A01 T10031010  RH  095%=      5-min Rain = 0
KLO1 090830Z 31003KT M00/M01 A303 RMK A01 T10031010  RH  095%=      5-min Rain = 0
KLO1 090831Z 31003KT M00/M01 A303 RMK A01 T10031009  RH  095%=      5-min Rain = 0
KLO1 090832Z 32003KT M00/M01 A303 RMK A01 T10031010  RH  095%=      5-min Rain = 0
KLO1 090833Z 32003KT M00/M01 A303 RMK A01 T10031009  RH  095%=      5-min Rain = 0
KLO1 090834Z 32003KT M00/M01 A303 RMK A01 T10031010  RH  095%=      5-min Rain = 0
KLO1 090835Z 33003KT M00/M01 A303 RMK A01 T10031010  RH  095%=      5-min Rain = 0
KLO1 090836Z 33003KT M00/M01 A303 RMK A01 T10031010  RH  095%=      5-min Rain = 0
KLO1 090837Z 32003KT M00/M01 A303 RMK A01 T10031010  RH  095%=      5-min Rain = 0
KLO1 090838Z 32003KT M00/M01 A303 RMK A01 T10031010  RH  095%=      5-min Rain = 0
KLO1 090839Z 32004KT M00/M01 A303 RMK A01 T10041010  RH  095%=      5-min Rain = 0
KLO1 090840Z 32004KT M00/M01 A303 RMK A01 T10041010  RH  095%=      5-min Rain = 0
KLO1 090841Z 32004KT M00/M01 A303 RMK A01 T10041011  RH  095%=      5-min Rain = 0
KLO1 090842Z 32003KT M00/M01 A303 RMK A01 T10041011  RH  095%=      5-min Rain = 0
KLO1 090843Z 32003KT M00/M01 A303 RMK A01 T10041011  RH  095%=      5-min Rain = 0
KLO1 090844Z 33003KT M01/M01 A303 RMK A01 T10051011  RH  095%=      5-min Rain = 0
KLO1 090845Z 33003KT M01/M01 A303 RMK A01 T10051011  RH  095%=      5-min Rain = 0
KLO1 090846Z 33003KT M01/M01 A303 RMK A01 T10051011  RH  095%=      5-min Rain = 0
KLO1 090847Z 33004KT M00/M01 A303 RMK A01 T10041011  RH  095%=      5-min Rain = 0
KLO1 090848Z 33003KT M01/M01 A303 RMK A01 T10051011  RH  095%=      5-min Rain = 0
KLO1 090849Z 32003KT M01/M01 A303 RMK A01 T10051011  RH  095%=      5-min Rain = 0
KLO1 090850Z 32004KT M01/M01 A303 RMK A01 T10051011  RH  095%=      5-min Rain = 0
KLO1 090851Z 32004KT M01/M01 A303 RMK A01 T10051012  RH  095%=      5-min Rain = 0
KLO1 090852Z 32004KT M01/M01 A3031 RMK A01 T10051012  RH  095%=      5-min Rain = 0
KLO1 090853Z 32004KT M01/M01 A3031 RMK A01 T10051012  RH  095%=      5-min Rain = 0
KLO1 090854Z 32004KT M01/M01 A3031 RMK A01 T10051012  RH  095%=      5-min Rain = 0
KLO1 090855Z 32003KT M01/M01 A3031 RMK A01 T10051011  RH  095%=      5-min Rain = 0
KLO1 090856Z 32004KT M01/M01 A3031 RMK A01 T10051011  RH  095%=      5-min Rain = 0
KLO1 090857Z 32004KT M00/M01 A3031 RMK A01 T10041011  RH  095%=      5-min Rain = 0
KLO1 090858Z 32004KT M00/M01 A3031 RMK A01 T10041010  RH  096%=      5-min Rain = 0
KLO1 090859Z 33004KT M00/M01 A3031 RMK A01 T10041010  RH  096%=      5-min Rain = 0
KLO1 090900Z 33004KT M00/M01 A3031 RMK A01 T10041010  RH  096%=      5-min Rain = 0
KLO1 090901Z 33003KT M00/M01 A303 RMK A01 T10041010  RH  096%=      5-min Rain = 0
KLO1 090902Z 33003KT M00/M01 A303 RMK A01 T10041010  RH  096%=      5-min Rain = 0
KLO1 090903Z 33004KT M00/M01 A303 RMK A01 T10041010  RH  095%=      5-min Rain = 0
KLO1 090904Z 33004KT M00/M01 A3031 RMK A01 T10041011  RH  096%=      5-min Rain = 0
KLO1 090905Z 33004KT M00/M01 A3031 RMK A01 T10041011  RH  095%=      5-min Rain = 0
KLO1 090906Z 33004KT M00/M01 A3031 RMK A01 T10041010  RH  095%=      5-min Rain = 0
KLO1 090907Z 33004KT M00/M01 A3031 RMK A01 T10041011  RH  095%=      5-min Rain = 0
KLO1 090908Z 34004KT M00/M01 A3031 RMK A01 T10041011  RH  095%=      5-min Rain = 0
KLO1 090909Z 33004KT M00/M01 A3031 RMK A01 T10041011  RH  095%=      5-min Rain = 0
KLO1 090910Z 33004KT M01/M01 A3031 RMK A01 T10051011  RH  095%=      5-min Rain = 0
KLO1 090911Z 33004KT M01/M01 A3031 RMK A01 T10051012  RH  095%=      5-min Rain = 0
KLO1 090912Z 34004KT M01/M01 A3031 RMK A01 T10051012  RH  095%=      5-min Rain = 0
KLO1 090913Z 34004KT M01/M01 A3031 RMK A01 T10061012  RH  095%=      5-min Rain = 0
KLO1 090914Z 34004KT M01/M01 A3031 RMK A01 T10051012  RH  095%=      5-min Rain = 0
KLO1 090915Z 34004KT M01/M01 A3031 RMK A01 T10061012  RH  095%=      5-min Rain = 0
KLO1 090916Z 34003KT M01/M01 A3031 RMK A01 T10061012  RH  095%=      5-min Rain = 0
KLO1 090917Z 33003KT M01/M01 A3031 RMK A01 T10061013  RH  095%=      5-min Rain = 0
KLO1 090918Z 33003KT M01/M01 A3031 RMK A01 T10061013  RH  095%=      5-min Rain = 0
KLO1 090919Z 33003KT M01/M01 A3031 RMK A01 T10061013  RH  095%=      5-min Rain = 0
KLO1 090920Z 33003KT M01/M01 A3031 RMK A01 T10061013  RH  095%=      5-min Rain = 0
KLO1 090921Z 34003KT M01/M01 A3031 RMK A01 T10061013  RH  095%=      5-min Rain = 0
KLO1 090922Z 34003KT M01/M01 A303 RMK A01 T10061012  RH  095%=      5-min Rain = 0
KLO1 090923Z 35003KT M01/M01 A303 RMK A01 T10061012  RH  095%=      5-min Rain = 0
KLO1 090924Z 35002KT M01/M01 A303 RMK A01 T10061012  RH  095%=      5-min Rain = 0
KLO1 090925Z 36003KT M01/M01 A303 RMK A01 T10051012  RH  095%=      5-min Rain = 0
KLO1 090926Z 36003KT M01/M01 A303 RMK A01 T10061012  RH  095%=      5-min Rain = 0
KLO1 090927Z 01002KT M01/M01 A303 RMK A01 T10051011  RH  095%=      5-min Rain = 0
KLO1 090928Z 02003KT M01/M01 A303 RMK A01 T10051011  RH  095%=      5-min Rain = 0
KLO1 090929Z 02003KT M01/M01 A303 RMK A01 T10051011  RH  095%=      5-min Rain = 0
KLO1 090930Z 01003KT M01/M01 A303 RMK A01 T10061013  RH  095%=      5-min Rain = 0
KLO1 090931Z 01003KT M01/M01 A303 RMK A01 T10071014  RH  095%=      5-min Rain = 0
KLO1 090932Z 01003KT M01/M01 A303 RMK A01 T10081014  RH  095%=      5-min Rain = 0
KLO1 090933Z 02003KT M01/M02 A303 RMK A01 T10081015  RH  095%=      5-min Rain = 0
KLO1 090934Z 03003KT M01/M02 A303 RMK A01 T10091016  RH  095%=      5-min Rain = 0
KLO1 090935Z 02004KT M01/M02 A303 RMK A01 T10101017  RH  095%=      5-min Rain = 0
KLO1 090936Z 02003KT M01/M02 A303 RMK A01 T10101017  RH  095%=      5-min Rain = 0
KLO1 090937Z 03003KT M01/M02 A303 RMK A01 T10101017  RH  095%=      5-min Rain = 0
KLO1 090938Z 03003KT M01/M02 A303 RMK A01 T10101017  RH  095%=      5-min Rain = 0
KLO1 090939Z 03003KT M01/M02 A303 RMK A01 T10101017  RH  095%=      5-min Rain = 0
KLO1 090940Z 04003KT M01/M02 A303 RMK A01 T10101017  RH  095%=      5-min Rain = 0
KLO1 090941Z 04003KT M01/M02 A303 RMK A01 T10101017  RH  095%=      5-min Rain = 0
KLO1 090942Z 05003KT M01/M02 A303 RMK A01 T10101017  RH  095%=      5-min Rain = 0
KLO1 090943Z 05003KT M01/M02 A303 RMK A01 T10101017  RH  095%=      5-min Rain = 0
KLO1 090944Z 05003KT M01/M02 A303 RMK A01 T10111018  RH  095%=      5-min Rain = 0
KLO1 090945Z 05003KT M01/M02 A303 RMK A01 T10111017  RH  095%=      5-min Rain = 0
KLO1 090946Z 05003KT M01/M02 A303 RMK A01 T10101017  RH  095%=      5-min Rain = 0
KLO1 090947Z 05003KT M01/M02 A303 RMK A01 T10101016  RH  095%=      5-min Rain = 0
KLO1 090948Z 05003KT M01/M02 A303 RMK A01 T10101016  RH  095%=      5-min Rain = 0
KLO1 090949Z 05003KT M01/M02 A303 RMK A01 T10101016  RH  095%=      5-min Rain = 0
KLO1 090950Z 05003KT M01/M02 A303 RMK A01 T10101016  RH  095%=      5-min Rain = 0
KLO1 090951Z 05004KT M01/M02 A303 RMK A01 T10101016  RH  095%=      5-min Rain = 0
KLO1 090952Z 06004KT M01/M02 A303 RMK A01 T10101017  RH  095%=      5-min Rain = 0
KLO1 090953Z 05005KT M01/M02 A303 RMK A01 T10101017  RH  095%=      5-min Rain = 0
KLO1 090954Z 05005KT M01/M02 A303 RMK A01 T10111018  RH  095%=      5-min Rain = 0
KLO1 090955Z 05004KT M01/M02 A303 RMK A01 T10111018  RH  095%=      5-min Rain = 0
KLO1 090956Z 06004KT M01/M02 A303 RMK A01 T10111017  RH  095%=      5-min Rain = 0
KLO1 090957Z 06004KT M01/M02 A303 RMK A01 T10101016  RH  095%=      5-min Rain = 0
KLO1 090958Z 06003KT M01/M02 A303 RMK A01 T10091016  RH  095%=      5-min Rain = 0
KLO1 090959Z 07004KT M01/M02 A303 RMK A01 T10091015  RH  096%=      5-min Rain = 0
KLO1 091000Z 07004KT M01/M02 A303 RMK A01 T10081015  RH  096%=      5-min Rain = 0
KLO1 091001Z 07004KT M01/M02 A303 RMK A01 T10081015  RH  096%=      5-min Rain = 0
KLO1 091002Z 07004KT M01/M02 A3029 RMK A01 T10091015  RH  095%=      5-min Rain = 0
KLO1 091003Z 07003KT M01/M02 A3029 RMK A01 T10101016  RH  095%=      5-min Rain = 0
KLO1 091004Z 07004KT M01/M02 A3029 RMK A01 T10101017  RH  095%=      5-min Rain = 0
KLO1 091005Z 07004KT M01/M02 A3029 RMK A01 T10101017  RH  095%=      5-min Rain = 0
KLO1 091006Z 08004KT M01/M02 A3029 RMK A01 T10111017  RH  095%=      5-min Rain = 0
KLO1 091007Z 08004KT M01/M02 A3029 RMK A01 T10111018  RH  095%=      5-min Rain = 0
KLO1 091008Z 08004KT M01/M02 A3029 RMK A01 T10111017  RH  095%=      5-min Rain = 0
KLO1 091009Z 08004KT M01/M02 A3029 RMK A01 T10111018  RH  095%=      5-min Rain = 0
KLO1 091010Z 07004KT M01/M02 A3029 RMK A01 T10111018  RH  095%=      5-min Rain = 0
KLO1 091011Z 08003KT M01/M02 A3029 RMK A01 T10121018  RH  095%=      5-min Rain = 0
KLO1 091012Z 08003KT M01/M02 A3029 RMK A01 T10121018  RH  095%=      5-min Rain = 0
KLO1 091013Z 07003KT M01/M02 A3029 RMK A01 T10111018  RH  095%=      5-min Rain = 0
KLO1 091014Z 07003KT M01/M02 A3029 RMK A01 T10121018  RH  095%=      5-min Rain = 0
KLO1 091015Z 07003KT M01/M02 A3029 RMK A01 T10121018  RH  095%=      5-min Rain = 0
KLO1 091016Z 08003KT M01/M02 A3029 RMK A01 T10121018  RH  095%=      5-min Rain = 0
KLO1 091017Z 08002KT M01/M02 A3029 RMK A01 T10121018  RH  095%=      5-min Rain = 0
KLO1 091018Z 07002KT M01/M02 A3029 RMK A01 T10121018  RH  095%=      5-min Rain = 0
KLO1 091019Z 07003KT M01/M02 A3029 RMK A01 T10111018  RH  095%=      5-min Rain = 0
KLO1 091020Z 07002KT M01/M02 A3029 RMK A01 T10111018  RH  095%=      5-min Rain = 0
KLO1 091021Z 07002KT M01/M02 A3029 RMK A01 T10121018  RH  096%=      5-min Rain = 0
KLO1 091022Z 07002KT M01/M02 A3029 RMK A01 T10121018  RH  096%=      5-min Rain = 0
KLO1 091023Z 07002KT M01/M02 A303 RMK A01 T10121018  RH  096%=      5-min Rain = 0
KLO1 091024Z 07002KT M01/M02 A303 RMK A01 T10121018  RH  096%=      5-min Rain = 0
KLO1 091025Z 07002KT M01/M02 A303 RMK A01 T10121018  RH  096%=      5-min Rain = 0
KLO1 091026Z 07002KT M01/M02 A303 RMK A01 T10121018  RH  096%=      5-min Rain = 0
KLO1 091027Z 07002KT M01/M02 A303 RMK A01 T10111018  RH  096%=      5-min Rain = 0
KLO1 091028Z 07002KT M01/M02 A3029 RMK A01 T10111017  RH  096%=      5-min Rain = 0
KLO1 091029Z 07002KT M01/M02 A303 RMK A01 T10111017  RH  096%=      5-min Rain = 0
KLO1 091030Z 07002KT M01/M02 A303 RMK A01 T10101016  RH  096%=      5-min Rain = 0
KLO1 091031Z 06002KT M01/M02 A303 RMK A01 T10101016  RH  096%=      5-min Rain = 0
KLO1 091032Z 06002KT M01/M02 A303 RMK A01 T10101016  RH  096%=      5-min Rain = 0
KLO1 091033Z 07002KT M01/M02 A303 RMK A01 T10101016  RH  096%=      5-min Rain = 0
KLO1 091034Z 07002KT M01/M02 A303 RMK A01 T10101017  RH  096%=      5-min Rain = 0
KLO1 091035Z 07002KT M01/M02 A303 RMK A01 T10111017  RH  096%=      5-min Rain = 0
KLO1 091036Z 07002KT M01/M02 A303 RMK A01 T10111017  RH  096%=      5-min Rain = 0
KLO1 091037Z 07001KT M01/M02 A303 RMK A01 T10111018  RH  096%=      5-min Rain = 0
KLO1 091038Z 07001KT M01/M02 A303 RMK A01 T10121018  RH  096%=      5-min Rain = 0
KLO1 091039Z 07001KT M01/M02 A303 RMK A01 T10121018  RH  096%=      5-min Rain = 0
KLO1 091040Z 08001KT M01/M02 A303 RMK A01 T10121019  RH  096%=      5-min Rain = 0
KLO1 091041Z 08000KT M01/M02 A303 RMK A01 T10121019  RH  096%=      5-min Rain = 0
KLO1 091042Z 00000KT M01/M02 A303 RMK A01 T10121018  RH  096%=      5-min Rain = 0
KLO1 091043Z 24000KT M01/M02 A303 RMK A01 T10121018  RH  096%=      5-min Rain = 0
KLO1 091044Z 24001KT M01/M02 A303 RMK A01 T10131020  RH  095%=      5-min Rain = 0
KLO1 091045Z 25002KT M01/M02 A3031 RMK A01 T10141021  RH  095%=      5-min Rain = 0
KLO1 091046Z 25003KT M01/M02 A3031 RMK A01 T10141021  RH  095%=      5-min Rain = 0
KLO1 091047Z 25003KT M01/M02 A3031 RMK A01 T10141021  RH  095%=      5-min Rain = 0
KLO1 091048Z 25004KT M01/M02 A3031 RMK A01 T10141021  RH  095%=      5-min Rain = 0
KLO1 091049Z 26004KT M01/M02 A3031 RMK A01 T10141021  RH  096%=      5-min Rain = 0
KLO1 091050Z 25004KT M02/M02 A3031 RMK A01 T10151021  RH  096%=      5-min Rain = 0
KLO1 091051Z 26004KT M02/M02 A3031 RMK A01 T10151022  RH  095%=      5-min Rain = 0
KLO1 091052Z 26005KT M02/M02 A3031 RMK A01 T10161022  RH  095%=      5-min Rain = 0
KLO1 091053Z 25005KT M02/M02 A3031 RMK A01 T10161022  RH  095%=      5-min Rain = 0
KLO1 091054Z 25005KT M02/M02 A3031 RMK A01 T10161023  RH  095%=      5-min Rain = 0
KLO1 091055Z 25005KT M02/M02 A3031 RMK A01 T10161022  RH  096%=      5-min Rain = 0
KLO1 091056Z 25005KT M02/M02 A3031 RMK A01 T10161022  RH  096%=      5-min Rain = 0
KLO1 091057Z 25005KT M02/M02 A3031 RMK A01 T10161022  RH  096%=      5-min Rain = 0
KLO1 091058Z 25005KT M02/M02 A3031 RMK A01 T10161022  RH  096%=      5-min Rain = 0
KLO1 091059Z 25005KT M02/M02 A3031 RMK A01 T10161022  RH  096%=      5-min Rain = 0
KLO1 091100Z 25005KT M02/M02 A3031 RMK A01 T10151021  RH  096%=      5-min Rain = 0
KLO1 091101Z 25006KT M02/M02 A3031 RMK A01 T10151021  RH  096%=      5-min Rain = 0
KLO1 091102Z 25006KT M01/M02 A3032 RMK A01 T10141020  RH  096%=      5-min Rain = 0
KLO1 091103Z 25006KT M01/M02 A3032 RMK A01 T10141020  RH  096%=      5-min Rain = 0
KLO1 091104Z 25006KT M01/M02 A3032 RMK A01 T10141020  RH  096%=      5-min Rain = 0
KLO1 091105Z 25006KT M01/M02 A3032 RMK A01 T10141020  RH  096%=      5-min Rain = 0
KLO1 091106Z 25006KT M01/M02 A3032 RMK A01 T10141020  RH  096%=      5-min Rain = 0
KLO1 091107Z 25006KT M01/M02 A3032 RMK A01 T10131019  RH  096%=      5-min Rain = 0
KLO1 091108Z 25006KT M01/M02 A3032 RMK A01 T10131019  RH  096%=      5-min Rain = 0
KLO1 091109Z 25006KT M01/M02 A3032 RMK A01 T10131019  RH  096%=      5-min Rain = 0
KLO1 091110Z 25006KT M01/M02 A3032 RMK A01 T10131019  RH  096%=      5-min Rain = 0
KLO1 091111Z 25006KT M01/M02 A3032 RMK A01 T10131019  RH  096%=      5-min Rain = 0
KLO1 091112Z 25006KT M01/M02 A3032 RMK A01 T10131019  RH  096%=      5-min Rain = 0
KLO1 091113Z 25006KT M01/M02 A3032 RMK A01 T10131019  RH  096%=      5-min Rain = 0
KLO1 091114Z 25007KT M01/M02 A3032 RMK A01 T10131019  RH  096%=      5-min Rain = 0
KLO1 091115Z 26007KT M01/M02 A3032 RMK A01 T10131019  RH  096%=      5-min Rain = 0
KLO1 091116Z 26006KT M01/M02 A3032 RMK A01 T10131019  RH  096%=      5-min Rain = 0
KLO1 091117Z 26007KT M01/M02 A3032 RMK A01 T10131019  RH  096%=      5-min Rain = 0
KLO1 091118Z 26007KT M01/M02 A3032 RMK A01 T10121018  RH  096%=      5-min Rain = 0
KLO1 091119Z 26006KT M01/M02 A3032 RMK A01 T10121018  RH  096%=      5-min Rain = 0
KLO1 091120Z 26006KT M01/M02 A3032 RMK A01 T10121018  RH  096%=      5-min Rain = 0
KLO1 091121Z 26005KT M01/M02 A3032 RMK A01 T10111017  RH  096%=      5-min Rain = 0
KLO1 091122Z 26005KT M01/M02 A3032 RMK A01 T10121018  RH  096%=      5-min Rain = 0
KLO1 091123Z 26006KT M01/M02 A3032 RMK A01 T10111017  RH  096%=      5-min Rain = 0
KLO1 091124Z 26006KT M01/M02 A3032 RMK A01 T10121018  RH  096%=      5-min Rain = 0
KLO1 091125Z 26005KT M01/M02 A3032 RMK A01 T10111018  RH  096%=      5-min Rain = 0
KLO1 091126Z 27004KT M01/M02 A3032 RMK A01 T10111017  RH  096%=      5-min Rain = 0
KLO1 091127Z 27004KT M01/M02 A3032 RMK A01 T10111017  RH  096%=      5-min Rain = 0
KLO1 091128Z 27004KT M01/M02 A3032 RMK A01 T10111017  RH  096%=      5-min Rain = 0
KLO1 091129Z 27005KT M01/M02 A3032 RMK A01 T10111017  RH  096%=      5-min Rain = 0
KLO1 091130Z 27004KT M01/M02 A3032 RMK A01 T10111017  RH  096%=      5-min Rain = 0
KLO1 091131Z 27004KT M01/M02 A3032 RMK A01 T10111017  RH  096%=      5-min Rain = 0
KLO1 091132Z 27004KT M01/M02 A3032 RMK A01 T10111017  RH  095%=      5-min Rain = 0
KLO1 091133Z 27004KT M01/M02 A3032 RMK A01 T10111017  RH  095%=      5-min Rain = 0
KLO1 091134Z 27004KT M01/M02 A3032 RMK A01 T10111018  RH  095%=      5-min Rain = 0
KLO1 091135Z 27004KT M01/M02 A3032 RMK A01 T10121018  RH  095%=      5-min Rain = 0
KLO1 091136Z 28004KT M01/M02 A3032 RMK A01 T10121018  RH  095%=      5-min Rain = 0
KLO1 091137Z 27005KT M01/M02 A3032 RMK A01 T10111018  RH  095%=      5-min Rain = 0
KLO1 091138Z 27005KT M01/M02 A3032 RMK A01 T10121018  RH  095%=      5-min Rain = 0
KLO1 091139Z 28005KT M01/M02 A3032 RMK A01 T10121018  RH  095%=      5-min Rain = 0
KLO1 091140Z 28005KT M01/M02 A3032 RMK A01 T10121018  RH  095%=      5-min Rain = 0
KLO1 091141Z 28005KT M01/M02 A3033 RMK A01 T10111018  RH  095%=      5-min Rain = 0
KLO1 091142Z 27005KT M01/M02 A3033 RMK A01 T10111018  RH  095%=      5-min Rain = 0
KLO1 091143Z 28005KT M01/M02 A3033 RMK A01 T10111018  RH  095%=      5-min Rain = 0
KLO1 091144Z 28005KT M01/M02 A3033 RMK A01 T10111018  RH  095%=      5-min Rain = 0
KLO1 091145Z 28005KT M01/M02 A3033 RMK A01 T10111017  RH  095%=      5-min Rain = 0
KLO1 091146Z 28005KT M01/M02 A3033 RMK A01 T10111018  RH  095%=      5-min Rain = 0
KLO1 091147Z 28004KT M01/M02 A3033 RMK A01 T10111018  RH  095%=      5-min Rain = 0
KLO1 091148Z 28004KT M01/M02 A3032 RMK A01 T10111018  RH  095%=      5-min Rain = 0
KLO1 091149Z 28004KT M01/M02 A3032 RMK A01 T10111018  RH  095%=      5-min Rain = 0
KLO1 091150Z 28004KT M01/M02 A3032 RMK A01 T10111018  RH  095%=      5-min Rain = 0
KLO1 091151Z 28004KT M01/M02 A3033 RMK A01 T10121018  RH  095%=      5-min Rain = 0
KLO1 091152Z 28005KT M01/M02 A3033 RMK A01 T10111018  RH  095%=      5-min Rain = 0
KLO1 091153Z 28005KT M01/M02 A3033 RMK A01 T10111018  RH  095%=      5-min Rain = 0
KLO1 091154Z 29005KT M01/M02 A3033 RMK A01 T10111018  RH  095%=      5-min Rain = 0
KLO1 091155Z 29004KT M01/M02 A3033 RMK A01 T10111018  RH  095%=      5-min Rain = 0
KLO1 091156Z 29004KT M01/M02 A3033 RMK A01 T10101017  RH  095%=      5-min Rain = 0
KLO1 091157Z 29004KT M01/M02 A3033 RMK A01 T10101017  RH  095%=      5-min Rain = 0
KLO1 091158Z 29004KT M01/M02 A3033 RMK A01 T10101017  RH  095%=      5-min Rain = 0
KLO1 091159Z 29004KT M01/M02 A3033 RMK A01 T10101017  RH  095%=      5-min Rain = 0
KLO1 091200Z 29004KT M01/M02 A3033 RMK A01 T10101017  RH  095%=      5-min Rain = 0
KLO1 091201Z 30004KT M01/M02 A3033 RMK A01 T10101016  RH  095%=      5-min Rain = 0
KLO1 091202Z 29004KT M01/M02 A3033 RMK A01 T10101017  RH  095%=      5-min Rain = 0
KLO1 091203Z 30003KT M01/M02 A3033 RMK A01 T10101017  RH  095%=      5-min Rain = 0
KLO1 091204Z 30003KT M01/M02 A3033 RMK A01 T10101017  RH  095%=      5-min Rain = 0
KLO1 091205Z 30003KT M01/M02 A3033 RMK A01 T10101017  RH  095%=      5-min Rain = 0
KLO1 091206Z 30003KT M01/M02 A3033 RMK A01 T10101017  RH  095%=      5-min Rain = 0
KLO1 091207Z 30003KT M01/M02 A3033 RMK A01 T10101017  RH  095%=      5-min Rain = 0
KLO1 091208Z 29004KT M01/M02 A3033 RMK A01 T10101017  RH  095%=      5-min Rain = 0
KLO1 091209Z 29003KT M01/M02 A3033 RMK A01 T10091017  RH  095%=      5-min Rain = 0
KLO1 091210Z 30003KT M01/M02 A3033 RMK A01 T10101017  RH  095%=      5-min Rain = 0
KLO1 091211Z 30003KT M01/M02 A3033 RMK A01 T10101017  RH  095%=      5-min Rain = 0
KLO1 091212Z 30002KT M01/M02 A3033 RMK A01 T10101017  RH  095%=      5-min Rain = 0
KLO1 091213Z 30002KT M01/M02 A3033 RMK A01 T10101017  RH  095%=      5-min Rain = 0
KLO1 091214Z 29002KT M01/M02 A3033 RMK A01 T10101017  RH  095%=      5-min Rain = 0
KLO1 091215Z 29002KT M01/M02 A3033 RMK A01 T10101017  RH  095%=      5-min Rain = 0
KLO1 091216Z 29003KT M01/M02 A3033 RMK A01 T10101017  RH  095%=      5-min Rain = 0
KLO1 091217Z 29004KT M01/M02 A3033 RMK A01 T10101017  RH  095%=      5-min Rain = 0
KLO1 091218Z 29004KT M01/M02 A3033 RMK A01 T10101017  RH  095%=      5-min Rain = 0
KLO1 091219Z 28004KT M01/M02 A3033 RMK A01 T10091016  RH  095%=      5-min Rain = 0
KLO1 091220Z 29004KT M01/M02 A3033 RMK A01 T10101017  RH  095%=      5-min Rain = 0
KLO1 091221Z 29004KT M01/M02 A3034 RMK A01 T10101018  RH  095%=      5-min Rain = 0
KLO1 091222Z 29004KT M01/M02 A3034 RMK A01 T10101018  RH  095%=      5-min Rain = 0
KLO1 091223Z 30004KT M01/M02 A3034 RMK A01 T10101017  RH  095%=      5-min Rain = 0
KLO1 091224Z 30003KT M01/M02 A3034 RMK A01 T10101017  RH  095%=      5-min Rain = 0
KLO1 091225Z 31003KT M01/M02 A3034 RMK A01 T10101017  RH  095%=      5-min Rain = 0
KLO1 091226Z 31003KT M01/M02 A3034 RMK A01 T10101017  RH  095%=      5-min Rain = 0
KLO1 091227Z 31003KT M01/M02 A3034 RMK A01 T10101017  RH  095%=      5-min Rain = 0
KLO1 091228Z 31003KT M01/M02 A3034 RMK A01 T10101017  RH  095%=      5-min Rain = 0
KLO1 091229Z 31003KT M01/M02 A3034 RMK A01 T10101017  RH  095%=      5-min Rain = 0
KLO1 091230Z 31003KT M01/M02 A3034 RMK A01 T10111018  RH  095%=      5-min Rain = 0
KLO1 091231Z 31003KT M01/M02 A3034 RMK A01 T10111019  RH  095%=      5-min Rain = 0
KLO1 091232Z 32003KT M01/M02 A3034 RMK A01 T10121019  RH  095%=      5-min Rain = 0
KLO1 091233Z 32003KT M01/M02 A3034 RMK A01 T10121019  RH  095%=      5-min Rain = 0
KLO1 091234Z 32003KT M01/M02 A3034 RMK A01 T10121019  RH  095%=      5-min Rain = 0
KLO1 091235Z 31003KT M01/M02 A3034 RMK A01 T10121020  RH  095%=      5-min Rain = 0
KLO1 091236Z 32004KT M01/M02 A3034 RMK A01 T10121020  RH  095%=      5-min Rain = 0
KLO1 091237Z 32003KT M01/M02 A3034 RMK A01 T10131020  RH  095%=      5-min Rain = 0
KLO1 091238Z 32003KT M01/M02 A3034 RMK A01 T10131020  RH  095%=      5-min Rain = 0
KLO1 091239Z 33003KT M01/M02 A3034 RMK A01 T10131021  RH  095%=      5-min Rain = 0
KLO1 091240Z 33003KT M01/M02 A3034 RMK A01 T10131020  RH  095%=      5-min Rain = 0
KLO1 091241Z 33003KT M01/M02 A3034 RMK A01 T10131021  RH  095%=      5-min Rain = 0
KLO1 091242Z 34003KT M01/M02 A3034 RMK A01 T10131021  RH  095%=      5-min Rain = 0
KLO1 091243Z 34003KT M01/M02 A3034 RMK A01 T10131021  RH  095%=      5-min Rain = 0
KLO1 091244Z 34003KT M01/M02 A3034 RMK A01 T10131021  RH  095%=      5-min Rain = 0
KLO1 091245Z 34003KT M01/M02 A3034 RMK A01 T10131021  RH  095%=      5-min Rain = 0
KLO1 091246Z 34003KT M01/M02 A3034 RMK A01 T10131021  RH  095%=      5-min Rain = 0
KLO1 091247Z 33002KT M01/M02 A3034 RMK A01 T10131020  RH  095%=      5-min Rain = 0
KLO1 091248Z 33002KT M01/M02 A3034 RMK A01 T10131020  RH  095%=      5-min Rain = 0
KLO1 091249Z 33002KT M01/M02 A3034 RMK A01 T10121020  RH  095%=      5-min Rain = 0
KLO1 091250Z 33002KT M01/M02 A3035 RMK A01 T10121020  RH  095%=      5-min Rain = 0
KLO1 091251Z 33002KT M01/M02 A3035 RMK A01 T10121020  RH  095%=      5-min Rain = 0
KLO1 091252Z 33002KT M01/M02 A3035 RMK A01 T10121020  RH  095%=      5-min Rain = 0
KLO1 091253Z 33002KT M01/M02 A3035 RMK A01 T10131020  RH  095%=      5-min Rain = 0
KLO1 091254Z 33002KT M01/M02 A3035 RMK A01 T10131020  RH  095%=      5-min Rain = 0
KLO1 091255Z 33002KT M01/M02 A3035 RMK A01 T10121020  RH  095%=      5-min Rain = 0
KLO1 091256Z 33002KT M01/M02 A3035 RMK A01 T10131020  RH  095%=      5-min Rain = 0
KLO1 091257Z 33002KT M01/M02 A3035 RMK A01 T10131020  RH  095%=      5-min Rain = 0
KLO1 091258Z 33002KT M01/M02 A3035 RMK A01 T10131021  RH  095%=      5-min Rain = 0
KLO1 091259Z 33002KT M01/M02 A3035 RMK A01 T10141022  RH  095%=      5-min Rain = 0
KLO1 091300Z 33001KT M02/M02 A3035 RMK A01 T10151023  RH  094%=      5-min Rain = 0
KLO1 091301Z 33001KT M02/M02 A3035 RMK A01 T10151022  RH  095%=      5-min Rain = 0
KLO1 091302Z 33001KT M02/M02 A3035 RMK A01 T10151022  RH  095%=      5-min Rain = 0
KLO1 091303Z 33001KT M02/M02 A3035 RMK A01 T10161023  RH  094%=      5-min Rain = 0
KLO1 091304Z 33001KT M02/M03 A3035 RMK A01 T10171025  RH  094%=      5-min Rain = 0
KLO1 091305Z 33001KT M02/M03 A3035 RMK A01 T10171025  RH  094%=      5-min Rain = 0
KLO1 091306Z 34002KT M02/M03 A3035 RMK A01 T10171025  RH  094%=      5-min Rain = 0
KLO1 091307Z 35002KT M02/M03 A3035 RMK A01 T10171025  RH  094%=      5-min Rain = 0
KLO1 091308Z 35002KT M02/M03 A3035 RMK A01 T10171025  RH  094%=      5-min Rain = 0
KLO1 091309Z 35002KT M02/M03 A3035 RMK A01 T10181026  RH  094%=      5-min Rain = 0
KLO1 091310Z 35002KT M02/M03 A3035 RMK A01 T10181026  RH  094%=      5-min Rain = 0
KLO1 091311Z 35002KT M02/M03 A3035 RMK A01 T10181026  RH  094%=      5-min Rain = 0
KLO1 091312Z 35003KT M02/M03 A3035 RMK A01 T10181026  RH  094%=      5-min Rain = 0
KLO1 091313Z 35003KT M02/M03 A3035 RMK A01 T10181026  RH  094%=      5-min Rain = 0
KLO1 091314Z 35003KT M02/M03 A3035 RMK A01 T10181026  RH  094%=      5-min Rain = 0
KLO1 091315Z 35003KT M02/M03 A3035 RMK A01 T10181026  RH  095%=      5-min Rain = 0
KLO1 091316Z 35003KT M02/M03 A3036 RMK A01 T10171025  RH  095%=      5-min Rain = 0
KLO1 091317Z 35003KT M02/M03 A3036 RMK A01 T10181025  RH  095%=      5-min Rain = 0
KLO1 091318Z 35003KT M02/M02 A3036 RMK A01 T10171024  RH  095%=      5-min Rain = 0
KLO1 091319Z 35002KT M02/M02 A3036 RMK A01 T10171024  RH  095%=      5-min Rain = 0
KLO1 091320Z 35003KT M02/M02 A3036 RMK A01 T10161023  RH  095%=      5-min Rain = 0
KLO1 091321Z 35003KT M02/M02 A3036 RMK A01 T10161023  RH  095%=      5-min Rain = 0
KLO1 091322Z 35003KT M02/M02 A3036 RMK A01 T10161023  RH  095%=      5-min Rain = 0
KLO1 091323Z 35003KT M02/M02 A3036 RMK A01 T10161024  RH  095%=      5-min Rain = 0
KLO1 091324Z 35003KT M02/M02 A3036 RMK A01 T10161024  RH  095%=      5-min Rain = 0
KLO1 091325Z 35004KT M02/M02 A3036 RMK A01 T10171024  RH  095%=      5-min Rain = 0
KLO1 091326Z 35004KT M02/M02 A3036 RMK A01 T10161023  RH  095%=      5-min Rain = 0
KLO1 091327Z 35004KT M02/M02 A3036 RMK A01 T10151022  RH  095%=      5-min Rain = 0
KLO1 091328Z 35003KT M01/M02 A3036 RMK A01 T10141021  RH  095%=      5-min Rain = 0
KLO1 091329Z 35003KT M02/M02 A3036 RMK A01 T10151022  RH  095%=      5-min Rain = 0
KLO1 091330Z 35003KT M02/M02 A3036 RMK A01 T10151022  RH  095%=      5-min Rain = 0
KLO1 091331Z 35003KT M02/M02 A3036 RMK A01 T10161023  RH  095%=      5-min Rain = 0
KLO1 091332Z 35003KT M02/M02 A3036 RMK A01 T10171024  RH  095%=      5-min Rain = 0
KLO1 091333Z 35003KT M02/M02 A3036 RMK A01 T10171024  RH  095%=      5-min Rain = 0
KLO1 091334Z 34003KT M02/M02 A3036 RMK A01 T10171024  RH  095%=      5-min Rain = 0
KLO1 091335Z 36002KT M02/M03 A3036 RMK A01 T10171025  RH  095%=      5-min Rain = 0
KLO1 091336Z 35002KT M02/M02 A3036 RMK A01 T10171024  RH  095%=      5-min Rain = 0
KLO1 091337Z 35002KT M02/M02 A3036 RMK A01 T10171024  RH  095%=      5-min Rain = 0
KLO1 091338Z 34002KT M02/M03 A3036 RMK A01 T10171025  RH  095%=      5-min Rain = 0
KLO1 091339Z 35002KT M02/M02 A3036 RMK A01 T10171024  RH  095%=      5-min Rain = 0
KLO1 091340Z 35002KT M02/M02 A3036 RMK A01 T10171024  RH  095%=      5-min Rain = 0
KLO1 091341Z 35002KT M02/M02 A3036 RMK A01 T10171024  RH  095%=      5-min Rain = 0
KLO1 091342Z 35002KT M02/M02 A3036 RMK A01 T10161024  RH  095%=      5-min Rain = 0
KLO1 091343Z 34001KT M02/M02 A3036 RMK A01 T10161023  RH  095%=      5-min Rain = 0
KLO1 091344Z 35002KT M02/M02 A3036 RMK A01 T10161024  RH  095%=      5-min Rain = 0
KLO1 091345Z 34001KT M02/M02 A3037 RMK A01 T10161023  RH  095%=      5-min Rain = 0
KLO1 091346Z 35001KT M02/M02 A3037 RMK A01 T10161023  RH  095%=      5-min Rain = 0
KLO1 091347Z 35001KT M02/M02 A3037 RMK A01 T10161023  RH  095%=      5-min Rain = 0
KLO1 091348Z 35000KT M02/M02 A3037 RMK A01 T10161023  RH  095%=      5-min Rain = 0
KLO1 091349Z 36001KT M02/M02 A3037 RMK A01 T10161023  RH  095%=      5-min Rain = 0
KLO1 091350Z 00000KT M02/M02 A3037 RMK A01 T10151022  RH  095%=      5-min Rain = 0
KLO1 091351Z 00000KT M01/M02 A3037 RMK A01 T10141021  RH  095%=      5-min Rain = 0
KLO1 091352Z 01001KT M01/M02 A3037 RMK A01 T10141021  RH  095%=      5-min Rain = 0
KLO1 091353Z 01001KT M01/M02 A3037 RMK A01 T10131020  RH  095%=      5-min Rain = 0
KLO1 091354Z 03001KT M01/M02 A3037 RMK A01 T10131020  RH  095%=      5-min Rain = 0
KLO1 091355Z 02002KT M01/M02 A3037 RMK A01 T10131020  RH  095%=      5-min Rain = 0
KLO1 091356Z 01002KT M01/M02 A3037 RMK A01 T10131021  RH  095%=      5-min Rain = 0
KLO1 091357Z 01002KT M01/M02 A3037 RMK A01 T10131021  RH  095%=      5-min Rain = 0
KLO1 091358Z 01003KT M01/M02 A3037 RMK A01 T10131021  RH  095%=      5-min Rain = 0
KLO1 091359Z 01004KT M01/M02 A3037 RMK A01 T10131020  RH  095%=      5-min Rain = 0
KLO1 091400Z 02003KT M01/M02 A3037 RMK A01 T10121020  RH  095%=      5-min Rain = 0
KLO1 091401Z 01003KT M01/M02 A3037 RMK A01 T10121019  RH  095%=      5-min Rain = 0
KLO1 091402Z 01003KT M01/M02 A3037 RMK A01 T10121019  RH  095%=      5-min Rain = 0
KLO1 091403Z 01003KT M01/M02 A3038 RMK A01 T10121019  RH  095%=      5-min Rain = 0
KLO1 091404Z 35002KT M01/M02 A3038 RMK A01 T10121019  RH  095%=      5-min Rain = 0
KLO1 091405Z 33001KT M01/M02 A3038 RMK A01 T10111019  RH  095%=      5-min Rain = 0
KLO1 091406Z 32001KT M01/M02 A3038 RMK A01 T10111019  RH  095%=      5-min Rain = 0
KLO1 091407Z 32002KT M01/M02 A3038 RMK A01 T10121019  RH  095%=      5-min Rain = 0
KLO1 091408Z 32002KT M01/M02 A3038 RMK A01 T10111019  RH  095%=      5-min Rain = 0
KLO1 091409Z 31002KT M01/M02 A3038 RMK A01 T10111019  RH  095%=      5-min Rain = 0
KLO1 091410Z 30002KT M01/M02 A3038 RMK A01 T10111019  RH  094%=      5-min Rain = 0
KLO1 091411Z 31002KT M01/M02 A3038 RMK A01 T10111019  RH  094%=      5-min Rain = 0
KLO1 091412Z 30002KT M01/M02 A3038 RMK A01 T10111019  RH  094%=      5-min Rain = 0
KLO1 091413Z 29002KT M01/M02 A3038 RMK A01 T10111019  RH  094%=      5-min Rain = 0
KLO1 091414Z 28001KT M01/M02 A3038 RMK A01 T10111019  RH  094%=      5-min Rain = 0
KLO1 091415Z 27001KT M01/M02 A3038 RMK A01 T10121020  RH  094%=      5-min Rain = 0
KLO1 091416Z 26001KT M01/M02 A3038 RMK A01 T10111020  RH  094%=      5-min Rain = 0
KLO1 091417Z 26001KT M01/M02 A3038 RMK A01 T10121020  RH  094%=      5-min Rain = 0
KLO1 091418Z 25001KT M01/M02 A3038 RMK A01 T10111020  RH  094%=      5-min Rain = 0
KLO1 091419Z 25001KT M01/M02 A3038 RMK A01 T10111020  RH  094%=      5-min Rain = 0
KLO1 091420Z 25001KT M01/M02 A3038 RMK A01 T10111020  RH  094%=      5-min Rain = 0
KLO1 091421Z 25001KT M01/M02 A3038 RMK A01 T10111019  RH  094%=      5-min Rain = 0
KLO1 091422Z 26000KT M01/M02 A3038 RMK A01 T10111019  RH  094%=      5-min Rain = 0
KLO1 091423Z 27001KT M01/M02 A3038 RMK A01 T10101018  RH  094%=      5-min Rain = 0
KLO1 091424Z 28001KT M01/M02 A3038 RMK A01 T10101018  RH  094%=      5-min Rain = 0
KLO1 091425Z 29001KT M01/M02 A3038 RMK A01 T10101018  RH  094%=      5-min Rain = 0
KLO1 091426Z 29001KT M01/M02 A3038 RMK A01 T10091017  RH  094%=      5-min Rain = 0
KLO1 091427Z 29001KT M01/M02 A3038 RMK A01 T10091017  RH  094%=      5-min Rain = 0
KLO1 091428Z 29001KT M01/M02 A3038 RMK A01 T10081016  RH  094%=      5-min Rain = 0
KLO1 091429Z 28001KT M01/M02 A3038 RMK A01 T10081016  RH  094%=      5-min Rain = 0
KLO1 091430Z 28000KT M01/M02 A3038 RMK A01 T10081016  RH  094%=      5-min Rain = 0
KLO1 091431Z 28001KT M01/M02 A3038 RMK A01 T10071016  RH  094%=      5-min Rain = 0
KLO1 091432Z 29001KT M01/M02 A3038 RMK A01 T10071015  RH  094%=      5-min Rain = 0
KLO1 091433Z 29001KT M01/M02 A3038 RMK A01 T10061015  RH  094%=      5-min Rain = 0
KLO1 091434Z 29001KT M01/M02 A3039 RMK A01 T10061015  RH  094%=      5-min Rain = 0
KLO1 091435Z 29002KT M01/M02 A3039 RMK A01 T10061015  RH  094%=      5-min Rain = 0
KLO1 091436Z 30001KT M01/M02 A3039 RMK A01 T10061015  RH  094%=      5-min Rain = 0
KLO1 091437Z 29001KT M01/M02 A3039 RMK A01 T10061015  RH  094%=      5-min Rain = 0
KLO1 091438Z 29001KT M01/M02 A3039 RMK A01 T10051015  RH  093%=      5-min Rain = 0
KLO1 091439Z 30001KT M01/M02 A3039 RMK A01 T10051015  RH  093%=      5-min Rain = 0
KLO1 091440Z 30001KT M01/M01 A3039 RMK A01 T10051014  RH  093%=      5-min Rain = 0
KLO1 091441Z 29001KT M00/M01 A3039 RMK A01 T10041013  RH  093%=      5-min Rain = 0
KLO1 091442Z 30001KT M00/M01 A3039 RMK A01 T10031013  RH  093%=      5-min Rain = 0
KLO1 091443Z 31002KT M00/M01 A3039 RMK A01 T10041013  RH  093%=      5-min Rain = 0
KLO1 091444Z 31001KT M00/M01 A3039 RMK A01 T10031013  RH  093%=      5-min Rain = 0
KLO1 091445Z 30001KT M00/M01 A3039 RMK A01 T10031013  RH  093%=      5-min Rain = 0
KLO1 091446Z 30001KT M00/M01 A3039 RMK A01 T10021012  RH  093%=      5-min Rain = 0
KLO1 091447Z 30001KT M00/M01 A3039 RMK A01 T10021012  RH  093%=      5-min Rain = 0
KLO1 091448Z 30001KT M00/M01 A3039 RMK A01 T10021012  RH  093%=      5-min Rain = 0
KLO1 091449Z 31000KT M00/M01 A3039 RMK A01 T10021012  RH  093%=      5-min Rain = 0
KLO1 091450Z 29000KT M00/M01 A304 RMK A01 T10011012  RH  093%=      5-min Rain = 0
KLO1 091451Z 28001KT M00/M01 A304 RMK A01 T10011011  RH  093%=      5-min Rain = 0
KLO1 091452Z 30000KT 00/01 A304 RMK A01 T00-00-11  RH  092%=      5-min Rain = 0
KLO1 091453Z 29001KT 00/01 A304 RMK A01 T00-00-11  RH  092%=      5-min Rain = 0
KLO1 091454Z 29001KT 00/01 A304 RMK A01 T00-00-11  RH  092%=      5-min Rain = 0
KLO1 091455Z 29001KT 00/01 A304 RMK A01 T00000-11  RH  092%=      5-min Rain = 0
KLO1 091456Z 30001KT 00/M01 A304 RMK A01 T00011011  RH  092%=      5-min Rain = 0
KLO1 091457Z 31001KT 00/M01 A304 RMK A01 T00011011  RH  092%=      5-min Rain = 0
KLO1 091458Z 32001KT 00/M01 A304 RMK A01 T00011011  RH  092%=      5-min Rain = 0
KLO1 091459Z 33001KT 00/M01 A304 RMK A01 T00011011  RH  092%=      5-min Rain = 0
KLO1 091500Z 32001KT 00/M01 A304 RMK A01 T00011011  RH  092%=      5-min Rain = 0
KLO1 091501Z 35001KT 00/M01 A304 RMK A01 T00021010  RH  092%=      5-min Rain = 0
KLO1 091502Z 01001KT 00/M01 A304 RMK A01 T00021009  RH  092%=      5-min Rain = 0
KLO1 091503Z 00001KT 00/M01 A304 RMK A01 T00031009  RH  092%=      5-min Rain = 0
KLO1 091504Z 36001KT 00/M01 A304 RMK A01 T00041008  RH  092%=      5-min Rain = 0
KLO1 091505Z 01001KT 00/M01 A304 RMK A01 T00041009  RH  091%=      5-min Rain = 0
KLO1 091506Z 35001KT 00/M01 A304 RMK A01 T00041009  RH  091%=      5-min Rain = 0
KLO1 091507Z 00002KT 00/M01 A304 RMK A01 T00041009  RH  091%=      5-min Rain = 0
KLO1 091508Z 00001KT 01/M01 A304 RMK A01 T00051008  RH  091%=      5-min Rain = 0
KLO1 091509Z 00002KT 01/M01 A304 RMK A01 T00061007  RH  091%=      5-min Rain = 0
KLO1 091510Z 01002KT 01/M01 A304 RMK A01 T00061006  RH  091%=      5-min Rain = 0
KLO1 091511Z 01002KT 01/M01 A304 RMK A01 T00071005  RH  091%=      5-min Rain = 0
KLO1 091512Z 01002KT 01/M01 A304 RMK A01 T00071006  RH  091%=      5-min Rain = 0
KLO1 091513Z 36002KT 01/M01 A304 RMK A01 T00071006  RH  091%=      5-min Rain = 0
KLO1 091514Z 34002KT 01/M01 A304 RMK A01 T00081006  RH  091%=      5-min Rain = 0
KLO1 091515Z 35001KT 01/M01 A304 RMK A01 T00081005  RH  091%=      5-min Rain = 0
KLO1 091516Z 35002KT 01/M01 A304 RMK A01 T00091005  RH  091%=      5-min Rain = 0
KLO1 091517Z 35001KT 01/M01 A304 RMK A01 T00091005  RH  090%=      5-min Rain = 0
KLO1 091518Z 01001KT 01/M01 A304 RMK A01 T00091005  RH  090%=      5-min Rain = 0
KLO1 091519Z 03002KT 01/M01 A304 RMK A01 T00101005  RH  090%=      5-min Rain = 0
KLO1 091520Z 01002KT 01/M01 A304 RMK A01 T00101005  RH  090%=      5-min Rain = 0
KLO1 091521Z 02001KT 01/M01 A304 RMK A01 T00101006  RH  089%=      5-min Rain = 0
KLO1 091522Z 02002KT 01/M01 A304 RMK A01 T00111006  RH  089%=      5-min Rain = 0
KLO1 091523Z 02002KT 01/M01 A304 RMK A01 T00111006  RH  088%=      5-min Rain = 0
KLO1 091524Z 01002KT 01/M01 A3041 RMK A01 T00121006  RH  088%=      5-min Rain = 0
KLO1 091525Z 02002KT 01/M01 A3041 RMK A01 T00121006  RH  088%=      5-min Rain = 0
KLO1 091526Z 02003KT 01/M01 A3041 RMK A01 T00121006  RH  088%=      5-min Rain = 0
KLO1 091527Z 02003KT 01/M01 A3041 RMK A01 T00121006  RH  087%=      5-min Rain = 0
KLO1 091528Z 01002KT 01/M01 A3041 RMK A01 T00121007  RH  087%=      5-min Rain = 0
KLO1 091529Z 02003KT 01/M01 A3041 RMK A01 T00131008  RH  086%=      5-min Rain = 0
KLO1 091530Z 02002KT 01/M01 A3041 RMK A01 T00131007  RH  087%=      5-min Rain = 0
KLO1 091531Z 02002KT 01/M01 A3041 RMK A01 T00141006  RH  086%=      5-min Rain = 0
KLO1 091532Z 02002KT 01/M01 A3041 RMK A01 T00141006  RH  086%=      5-min Rain = 0
KLO1 091533Z 00003KT 02/M01 A3041 RMK A01 T00151007  RH  086%=      5-min Rain = 0
KLO1 091534Z 02003KT 02/M01 A3041 RMK A01 T00161007  RH  085%=      5-min Rain = 0
KLO1 091535Z 05003KT 02/M01 A3041 RMK A01 T00171006  RH  085%=      5-min Rain = 0
KLO1 091536Z 04003KT 02/M01 A3041 RMK A01 T00181005  RH  085%=      5-min Rain = 0
KLO1 091537Z 02003KT 02/M01 A3041 RMK A01 T00181006  RH  084%=      5-min Rain = 0
KLO1 091538Z 03005KT 02/M01 A3041 RMK A01 T00191008  RH  083%=      5-min Rain = 0
KLO1 091539Z 02004KT 02/M01 A3041 RMK A01 T00191010  RH  081%=      5-min Rain = 0
KLO1 091540Z 03003KT 02/M01 A3041 RMK A01 T00191012  RH  080%=      5-min Rain = 0
KLO1 091541Z 02003KT 02/M01 A3041 RMK A01 T00191012  RH  080%=      5-min Rain = 0
KLO1 091542Z 03005KT 02/M01 A3041 RMK A01 T00191011  RH  080%=      5-min Rain = 0
KLO1 091543Z 03005KT 02/M01 A3041 RMK A01 T00201014  RH  079%=      5-min Rain = 0
KLO1 091544Z 03004KT 02/M02 A3041 RMK A01 T00201016  RH  077%=      5-min Rain = 0
KLO1 091545Z 03004KT 02/M02 A3041 RMK A01 T00201016  RH  077%=      5-min Rain = 0
KLO1 091546Z 03005KT 02/M02 A3041 RMK A01 T00201015  RH  078%=      5-min Rain = 0
KLO1 091547Z 02004KT 02/M01 A3041 RMK A01 T00211012  RH  079%=      5-min Rain = 0
KLO1 091548Z 03004KT 02/M01 A3041 RMK A01 T00221011  RH  079%=      5-min Rain = 0
KLO1 091549Z 03004KT 02/M01 A3042 RMK A01 T00231013  RH  077%=      5-min Rain = 0
KLO1 091550Z 02004KT 02/M01 A3042 RMK A01 T00231013  RH  077%=      5-min Rain = 0
KLO1 091551Z 03005KT 02/M01 A3042 RMK A01 T00241014  RH  076%=      5-min Rain = 0
KLO1 091552Z 03006KT 02/M02 A3042 RMK A01 T00241017  RH  074%=      5-min Rain = 0
KLO1 091553Z 03005KT 02/M02 A3042 RMK A01 T00241018  RH  074%=      5-min Rain = 0
KLO1 091554Z 03004KT 02/M02 A3042 RMK A01 T00241017  RH  074%=      5-min Rain = 0
KLO1 091555Z 04005KT 02/M02 A3042 RMK A01 T00241017  RH  074%=      5-min Rain = 0
KLO1 091556Z 03004KT 02/M02 A3042 RMK A01 T00241018  RH  074%=      5-min Rain = 0
KLO1 091557Z 03005KT 02/M02 A3042 RMK A01 T00241016  RH  075%=      5-min Rain = 0
KLO1 091558Z 02004KT 03/M02 A3042 RMK A01 T00251017  RH  074%=      5-min Rain = 0
KLO1 091559Z 03005KT 03/M02 A3042 RMK A01 T00251016  RH  074%=      5-min Rain = 0
KLO1 091600Z 03005KT 03/M02 A3042 RMK A01 T00261016  RH  074%=      5-min Rain = 0
KLO1 091601Z 01003KT 03/M01 A3042 RMK A01 T00261014  RH  075%=      5-min Rain = 0
KLO1 091602Z 02004KT 03/M01 A3042 RMK A01 T00271014  RH  074%=      5-min Rain = 0
KLO1 091603Z 02005KT 03/M01 A3042 RMK A01 T00281014  RH  074%=      5-min Rain = 0
KLO1 091604Z 03005KT 03/M02 A3042 RMK A01 T00281018  RH  072%=      5-min Rain = 0
KLO1 091605Z 03004KT 03/M02 A3042 RMK A01 T00271020  RH  071%=      5-min Rain = 0
KLO1 091606Z 02005KT 03/M02 A3042 RMK A01 T00271019  RH  072%=      5-min Rain = 0
KLO1 091607Z 02004KT 03/M02 A3042 RMK A01 T00281018  RH  072%=      5-min Rain = 0
KLO1 091608Z 02003KT 03/M02 A3042 RMK A01 T00271020  RH  071%=      5-min Rain = 0
KLO1 091609Z 01005KT 03/M02 A3042 RMK A01 T00281019  RH  071%=      5-min Rain = 0
KLO1 091610Z 02005KT 03/M02 A3042 RMK A01 T00281019  RH  071%=      5-min Rain = 0
KLO1 091611Z 01004KT 03/M02 A3042 RMK A01 T00281019  RH  071%=      5-min Rain = 0
KLO1 091612Z 03003KT 03/M02 A3042 RMK A01 T00291018  RH  071%=      5-min Rain = 0
KLO1 091613Z 04006KT 03/M02 A3042 RMK A01 T00291020  RH  070%=      5-min Rain = 0
KLO1 091614Z 03006KT 03/M02 A3042 RMK A01 T00301018  RH  071%=      5-min Rain = 0
KLO1 091615Z 03005KT 03/M02 A3042 RMK A01 T00311018  RH  070%=      5-min Rain = 0
KLO1 091616Z 03004KT 03/M02 A3042 RMK A01 T00311019  RH  069%=      5-min Rain = 0
KLO1 091617Z 05005KT 03/M02 A3042 RMK A01 T00311019  RH  070%=      5-min Rain = 0
KLO1 091618Z 05005KT 03/M02 A3042 RMK A01 T00311019  RH  070%=      5-min Rain = 0
KLO1 091619Z 05005KT 03/M02 A3042 RMK A01 T00311023  RH  067%=      5-min Rain = 0
KLO1 091620Z 04005KT 03/M02 A3042 RMK A01 T00311023  RH  067%=      5-min Rain = 0
KLO1 091621Z 03006KT 03/M02 A3042 RMK A01 T00311021  RH  069%=      5-min Rain = 0
KLO1 091622Z 05005KT 03/M02 A3042 RMK A01 T00311022  RH  068%=      5-min Rain = 0
KLO1 091623Z 04006KT 03/M02 A3042 RMK A01 T00321024  RH  067%=      5-min Rain = 0
KLO1 091624Z 04005KT 03/M02 A3042 RMK A01 T00321023  RH  067%=      5-min Rain = 0
KLO1 091625Z 04005KT 03/M02 A3042 RMK A01 T00321022  RH  068%=      5-min Rain = 0
KLO1 091626Z 04004KT 03/M02 A3042 RMK A01 T00331020  RH  069%=      5-min Rain = 0
KLO1 091627Z 04003KT 03/M02 A3042 RMK A01 T00331022  RH  067%=      5-min Rain = 0
KLO1 091628Z 04006KT 03/M02 A3042 RMK A01 T00331024  RH  066%=      5-min Rain = 0
KLO1 091629Z 04005KT 03/M02 A3042 RMK A01 T00331024  RH  066%=      5-min Rain = 0
KLO1 091630Z 05005KT 03/M03 A3042 RMK A01 T00331026  RH  065%=      5-min Rain = 0
KLO1 091631Z 06005KT 03/M03 A3042 RMK A01 T00321028  RH  065%=      5-min Rain = 0
KLO1 091632Z 02004KT 03/M03 A3042 RMK A01 T00321025  RH  066%=      5-min Rain = 0
KLO1 091633Z 02004KT 03/M02 A3042 RMK A01 T00331023  RH  066%=      5-min Rain = 0
KLO1 091634Z 03004KT 03/M02 A3042 RMK A01 T00341021  RH  067%=      5-min Rain = 0
KLO1 091635Z 04004KT 04/M02 A3042 RMK A01 T00361021  RH  067%=      5-min Rain = 0
KLO1 091636Z 03005KT 04/M02 A3042 RMK A01 T00361023  RH  065%=      5-min Rain = 0
KLO1 091637Z 04005KT 04/M02 A3042 RMK A01 T00361023  RH  065%=      5-min Rain = 0
KLO1 091638Z 04006KT 04/M02 A3042 RMK A01 T00361024  RH  065%=      5-min Rain = 0
KLO1 091639Z 02005KT 04/M02 A3042 RMK A01 T00371024  RH  065%=      5-min Rain = 0
KLO1 091640Z 04005KT 04/M02 A3042 RMK A01 T00371023  RH  065%=      5-min Rain = 0
KLO1 091641Z 05004KT 04/M03 A3042 RMK A01 T00381025  RH  064%=      5-min Rain = 0
KLO1 091642Z 05004KT 04/M02 A3042 RMK A01 T00381024  RH  064%=      5-min Rain = 0
KLO1 091643Z 04005KT 04/M02 A3042 RMK A01 T00381024  RH  064%=      5-min Rain = 0
KLO1 091644Z 02003KT 04/M02 A3042 RMK A01 T00391019  RH  066%=      5-min Rain = 0
KLO1 091645Z 03004KT 04/M02 A3042 RMK A01 T00401020  RH  065%=      5-min Rain = 0
KLO1 091646Z 04005KT 04/M02 A3042 RMK A01 T00401021  RH  064%=      5-min Rain = 0
KLO1 091647Z 01005KT 04/M02 A3042 RMK A01 T00401021  RH  064%=      5-min Rain = 0
KLO1 091648Z 02006KT 04/M02 A3042 RMK A01 T00411019  RH  065%=      5-min Rain = 0
KLO1 091649Z 02004KT 04/M02 A3042 RMK A01 T00401021  RH  064%=      5-min Rain = 0
KLO1 091650Z 04004KT 04/M02 A3042 RMK A01 T00401020  RH  065%=      5-min Rain = 0
KLO1 091651Z 04003KT 04/M02 A3042 RMK A01 T00391023  RH  064%=      5-min Rain = 0
KLO1 091652Z 02004KT 04/M02 A3042 RMK A01 T00391018  RH  066%=      5-min Rain = 0
KLO1 091653Z 35004KT 04/M01 A3042 RMK A01 T00411014  RH  067%=      5-min Rain = 0
KLO1 091654Z 01005KT 04/M01 A3042 RMK A01 T00431012  RH  067%=      5-min Rain = 0
KLO1 091655Z 01005KT 04/M01 A3042 RMK A01 T00441014  RH  066%=      5-min Rain = 0
KLO1 091656Z 00005KT 04/M02 A3042 RMK A01 T00441016  RH  065%=      5-min Rain = 0
KLO1 091657Z 36005KT 04/M02 A3042 RMK A01 T00431017  RH  065%=      5-min Rain = 0
KLO1 091658Z 02005KT 04/M02 A3042 RMK A01 T00431016  RH  065%=      5-min Rain = 0
KLO1 091659Z 01005KT 04/M02 A3042 RMK A01 T00421018  RH  065%=      5-min Rain = 0
KLO1 091700Z 01005KT 04/M02 A3042 RMK A01 T00421019  RH  065%=      5-min Rain = 0
KLO1 091701Z 03004KT 04/M02 A3042 RMK A01 T00421017  RH  065%=      5-min Rain = 0
KLO1 091702Z 04004KT 04/M02 A3042 RMK A01 T00421016  RH  066%=      5-min Rain = 0
KLO1 091703Z 03002KT 04/M02 A3042 RMK A01 T00421015  RH  066%=      5-min Rain = 0
KLO1 091704Z 00003KT 04/M02 A3042 RMK A01 T00431015  RH  066%=      5-min Rain = 0
KLO1 091705Z 36005KT 04/M01 A3042 RMK A01 T00431014  RH  066%=      5-min Rain = 0
KLO1 091706Z 36005KT 04/M02 A3042 RMK A01 T00441016  RH  065%=      5-min Rain = 0
KLO1 091707Z 00005KT 04/M01 A3042 RMK A01 T00441013  RH  066%=      5-min Rain = 0
KLO1 091708Z 03004KT 05/M02 A3042 RMK A01 T00451016  RH  065%=      5-min Rain = 0
KLO1 091709Z 02005KT 05/M02 A3042 RMK A01 T00451017  RH  064%=      5-min Rain = 0
KLO1 091710Z 00004KT 05/M02 A3042 RMK A01 T00451017  RH  064%=      5-min Rain = 0
KLO1 091711Z 03003KT 04/M02 A3042 RMK A01 T00441016  RH  065%=      5-min Rain = 0
KLO1 091712Z 02005KT 05/M01 A3042 RMK A01 T00451013  RH  066%=      5-min Rain = 0
KLO1 091713Z 02005KT 05/M01 A3042 RMK A01 T00461013  RH  066%=      5-min Rain = 0
KLO1 091714Z 01005KT 05/M01 A3042 RMK A01 T00471014  RH  065%=      5-min Rain = 0
KLO1 091715Z 02003KT 05/M02 A3042 RMK A01 T00461018  RH  063%=      5-min Rain = 0
KLO1 091716Z 01002KT 05/M02 A3042 RMK A01 T00451020  RH  063%=      5-min Rain = 0
KLO1 091717Z 01005KT 05/M02 A3042 RMK A01 T00461017  RH  064%=      5-min Rain = 0
KLO1 091718Z 02006KT 05/M02 A3042 RMK A01 T00471018  RH  063%=      5-min Rain = 0
KLO1 091719Z 02006KT 05/M02 A3042 RMK A01 T00471019  RH  062%=      5-min Rain = 0
KLO1 091720Z 02006KT 05/M02 A3042 RMK A01 T00471017  RH  063%=      5-min Rain = 0
KLO1 091721Z 02005KT 05/M02 A3042 RMK A01 T00481017  RH  063%=      5-min Rain = 0
KLO1 091722Z 36004KT 05/M02 A3042 RMK A01 T00481016  RH  063%=      5-min Rain = 0
KLO1 091723Z 01005KT 05/M02 A3042 RMK A01 T00481017  RH  063%=      5-min Rain = 0
KLO1 091724Z 02004KT 05/M02 A3042 RMK A01 T00481017  RH  063%=      5-min Rain = 0
KLO1 091725Z 02004KT 05/M02 A3042 RMK A01 T00481018  RH  062%=      5-min Rain = 0
KLO1 091726Z 02004KT 05/M02 A3042 RMK A01 T00481016  RH  063%=      5-min Rain = 0
KLO1 091727Z 04006KT 05/M02 A3042 RMK A01 T00491016  RH  063%=      5-min Rain = 0
KLO1 091728Z 04006KT 05/M02 A3042 RMK A01 T00491018  RH  062%=      5-min Rain = 0
KLO1 091729Z 01006KT 05/M01 A3042 RMK A01 T00491014  RH  064%=      5-min Rain = 0
KLO1 091730Z 01005KT 05/M01 A3042 RMK A01 T00511012  RH  064%=      5-min Rain = 0
KLO1 091731Z 36003KT 05/M02 A3042 RMK A01 T00511017  RH  061%=      5-min Rain = 0
KLO1 091732Z 35004KT 05/M02 A3042 RMK A01 T00501018  RH  061%=      5-min Rain = 0
KLO1 091733Z 01005KT 05/M02 A3042 RMK A01 T00501016  RH  062%=      5-min Rain = 0
KLO1 091734Z 35005KT 05/M02 A3042 RMK A01 T00511016  RH  062%=      5-min Rain = 0
KLO1 091735Z 00005KT 05/M02 A3041 RMK A01 T00501018  RH  061%=      5-min Rain = 0
KLO1 091736Z 01006KT 05/M02 A3041 RMK A01 T00501018  RH  061%=      5-min Rain = 0
KLO1 091737Z 00005KT 05/M02 A3041 RMK A01 T00501020  RH  060%=      5-min Rain = 0
KLO1 091738Z 01005KT 05/M02 A3041 RMK A01 T00501018  RH  062%=      5-min Rain = 0
KLO1 091739Z 01003KT 05/M01 A3041 RMK A01 T00511014  RH  063%=      5-min Rain = 0
KLO1 091740Z 01004KT 05/M02 A3041 RMK A01 T00521015  RH  062%=      5-min Rain = 0
KLO1 091741Z 36004KT 05/M02 A3041 RMK A01 T00521017  RH  061%=      5-min Rain = 0
KLO1 091742Z 34005KT 05/M02 A3041 RMK A01 T00521017  RH  061%=      5-min Rain = 0
KLO1 091743Z 35005KT 05/M02 A3041 RMK A01 T00521018  RH  061%=      5-min Rain = 0
KLO1 091744Z 35006KT 05/M01 A3041 RMK A01 T00521014  RH  062%=      5-min Rain = 0
KLO1 091745Z 34005KT 05/M02 A3041 RMK A01 T00521016  RH  061%=      5-min Rain = 0
KLO1 091746Z 34004KT 05/M02 A3041 RMK A01 T00521019  RH  060%=      5-min Rain = 0
KLO1 091747Z 35004KT 05/M02 A3041 RMK A01 T00511018  RH  061%=      5-min Rain = 0
KLO1 091748Z 00004KT 05/M02 A3041 RMK A01 T00521017  RH  061%=      5-min Rain = 0
KLO1 091749Z 02005KT 05/M02 A3041 RMK A01 T00531017  RH  061%=      5-min Rain = 0
KLO1 091750Z 36004KT 05/M02 A3041 RMK A01 T00531015  RH  062%=      5-min Rain = 0
KLO1 091751Z 32006KT 05/M02 A3041 RMK A01 T00541015  RH  061%=      5-min Rain = 0
KLO1 091752Z 32005KT 05/M01 A3041 RMK A01 T00541013  RH  062%=      5-min Rain = 0
KLO1 091753Z 33005KT 05/M01 A3041 RMK A01 T00541012  RH  062%=      5-min Rain = 0
KLO1 091754Z 33004KT 05/M02 A3041 RMK A01 T00541017  RH  060%=      5-min Rain = 0
KLO1 091755Z 32003KT 05/M02 A3041 RMK A01 T00531016  RH  061%=      5-min Rain = 0
KLO1 091756Z 33002KT 05/M02 A3041 RMK A01 T00531017  RH  061%=      5-min Rain = 0
KLO1 091757Z 00004KT 05/M02 A3041 RMK A01 T00531015  RH  062%=      5-min Rain = 0
KLO1 091758Z 03005KT 05/M02 A3041 RMK A01 T00541016  RH  061%=      5-min Rain = 0
KLO1 091759Z 02007KT 06/M02 A3041 RMK A01 T00551017  RH  060%=      5-min Rain = 0
KLO1 091800Z 02006KT 06/M02 A3041 RMK A01 T00561015  RH  061%=      5-min Rain = 0
KLO1 091801Z 01004KT 06/M02 A3041 RMK A01 T00561015  RH  060%=      5-min Rain = 0
KLO1 091802Z 34002KT 06/M02 A3041 RMK A01 T00561019  RH  058%=      5-min Rain = 0
KLO1 091803Z 33002KT 06/M02 A304 RMK A01 T00561018  RH  059%=      5-min Rain = 0
KLO1 091804Z 01003KT 06/M02 A304 RMK A01 T00561016  RH  060%=      5-min Rain = 0
KLO1 091805Z 04004KT 06/M01 A304 RMK A01 T00571013  RH  061%=      5-min Rain = 0
KLO1 091806Z 04004KT 06/M01 A304 RMK A01 T00581011  RH  061%=      5-min Rain = 0
KLO1 091807Z 01004KT 06/M01 A304 RMK A01 T00591014  RH  059%=      5-min Rain = 0
KLO1 091808Z 34003KT 06/M01 A304 RMK A01 T00591014  RH  059%=      5-min Rain = 0
KLO1 091809Z 03003KT 06/M02 A304 RMK A01 T00591015  RH  059%=      5-min Rain = 0
KLO1 091810Z 02003KT 06/M01 A304 RMK A01 T00591013  RH  060%=      5-min Rain = 0
KLO1 091811Z 03005KT 06/M01 A304 RMK A01 T00601014  RH  059%=      5-min Rain = 0
KLO1 091812Z 02007KT 06/M01 A304 RMK A01 T00601014  RH  059%=      5-min Rain = 0
KLO1 091813Z 02007KT 06/M01 A304 RMK A01 T00611013  RH  059%=      5-min Rain = 0
KLO1 091814Z 02006KT 06/M02 A304 RMK A01 T00621015  RH  058%=      5-min Rain = 0
KLO1 091815Z 02002KT 06/M02 A304 RMK A01 T00611019  RH  057%=      5-min Rain = 0
KLO1 091816Z 04003KT 06/M02 A304 RMK A01 T00601022  RH  055%=      5-min Rain = 0
KLO1 091817Z 02005KT 06/M02 A304 RMK A01 T00611018  RH  057%=      5-min Rain = 0
KLO1 091818Z 01006KT 06/M01 A304 RMK A01 T00621014  RH  058%=      5-min Rain = 0
KLO1 091819Z 01004KT 06/M02 A3039 RMK A01 T00621019  RH  056%=      5-min Rain = 0
KLO1 091820Z 01004KT 06/M02 A3039 RMK A01 T00611020  RH  056%=      5-min Rain = 0
KLO1 091821Z 00003KT 06/M02 A3039 RMK A01 T00611021  RH  056%=      5-min Rain = 0
KLO1 091822Z 02002KT 06/M02 A3039 RMK A01 T00601022  RH  055%=      5-min Rain = 0
KLO1 091823Z 02002KT 06/M02 A3039 RMK A01 T00611018  RH  057%=      5-min Rain = 0
KLO1 091824Z 35003KT 06/M02 A3039 RMK A01 T00611019  RH  056%=      5-min Rain = 0
KLO1 091825Z 36004KT 06/M02 A3039 RMK A01 T00621017  RH  057%=      5-min Rain = 0
KLO1 091826Z 33006KT 06/M02 A3039 RMK A01 T00631017  RH  057%=      5-min Rain = 0
KLO1 091827Z 33005KT 06/M02 A3039 RMK A01 T00631020  RH  056%=      5-min Rain = 0
KLO1 091828Z 34005KT 06/M02 A3039 RMK A01 T00611022  RH  055%=      5-min Rain = 0
KLO1 091829Z 35004KT 06/M02 A3039 RMK A01 T00611019  RH  056%=      5-min Rain = 0
KLO1 091830Z 01003KT 06/M02 A3039 RMK A01 T00611021  RH  056%=      5-min Rain = 0
KLO1 091831Z 01003KT 06/M02 A3039 RMK A01 T00611022  RH  055%=      5-min Rain = 0
KLO1 091832Z 35001KT 06/M02 A3039 RMK A01 T00621022  RH  055%=      5-min Rain = 0
KLO1 091833Z 01002KT 06/M02 A3039 RMK A01 T00621019  RH  056%=      5-min Rain = 0
KLO1 091834Z 35001KT 06/M02 A3038 RMK A01 T00631022  RH  054%=      5-min Rain = 0
KLO1 091835Z 35004KT 06/M02 A3038 RMK A01 T00641020  RH  055%=      5-min Rain = 0
KLO1 091836Z 34006KT 07/M02 A3038 RMK A01 T00651019  RH  055%=      5-min Rain = 0
KLO1 091837Z 34005KT 07/M02 A3038 RMK A01 T00661020  RH  054%=      5-min Rain = 0
KLO1 091838Z 35007KT 07/M02 A3038 RMK A01 T00651019  RH  055%=      5-min Rain = 0
KLO1 091839Z 01007KT 07/M02 A3038 RMK A01 T00651017  RH  056%=      5-min Rain = 0
KLO1 091840Z 02006KT 07/M02 A3038 RMK A01 T00661020  RH  054%=      5-min Rain = 0
KLO1 091841Z 03004KT 07/M03 A3038 RMK A01 T00651025  RH  053%=      5-min Rain = 0
KLO1 091842Z 04006KT 07/M02 A3038 RMK A01 T00651021  RH  054%=      5-min Rain = 0
KLO1 091843Z 03006KT 07/M02 A3038 RMK A01 T00651018  RH  055%=      5-min Rain = 0
KLO1 091844Z 03004KT 07/M02 A3038 RMK A01 T00661023  RH  053%=      5-min Rain = 0
KLO1 091845Z 02005KT 07/M03 A3038 RMK A01 T00651026  RH  052%=      5-min Rain = 0
KLO1 091846Z 01005KT 07/M02 A3038 RMK A01 T00651023  RH  054%=      5-min Rain = 0
KLO1 091847Z 02004KT 07/M02 A3038 RMK A01 T00651023  RH  053%=      5-min Rain = 0
KLO1 091848Z 04003KT 07/M02 A3038 RMK A01 T00651021  RH  054%=      5-min Rain = 0
KLO1 091849Z 01005KT 07/M02 A3038 RMK A01 T00661019  RH  055%=      5-min Rain = 0
KLO1 091850Z 34006KT 07/M02 A3038 RMK A01 T00671023  RH  053%=      5-min Rain = 0
KLO1 091851Z 00006KT 07/M03 A3038 RMK A01 T00651028  RH  051%=      5-min Rain = 0
KLO1 091852Z 36006KT 06/M02 A3038 RMK A01 T00641023  RH  053%=      5-min Rain = 0
KLO1 091853Z 01004KT 07/M03 A3038 RMK A01 T00651025  RH  053%=      5-min Rain = 0
KLO1 091854Z 01003KT 07/M03 A3038 RMK A01 T00651028  RH  052%=      5-min Rain = 0
KLO1 091855Z 02004KT 07/M02 A3038 RMK A01 T00661023  RH  053%=      5-min Rain = 0
KLO1 091856Z 02008KT 07/M02 A3037 RMK A01 T00671019  RH  054%=      5-min Rain = 0
KLO1 091857Z 02007KT 07/M02 A3037 RMK A01 T00681017  RH  054%=      5-min Rain = 0
KLO1 091858Z 02005KT 07/M02 A3037 RMK A01 T00691021  RH  053%=      5-min Rain = 0
KLO1 091859Z 01005KT 07/M02 A3037 RMK A01 T00681022  RH  052%=      5-min Rain = 0
KLO1 091900Z 01005KT 07/M02 A3037 RMK A01 T00681022  RH  053%=      5-min Rain = 0
KLO1 091901Z 35005KT 07/M02 A3037 RMK A01 T00681019  RH  054%=      5-min Rain = 0
KLO1 091902Z 02007KT 07/M02 A3037 RMK A01 T00681020  RH  053%=      5-min Rain = 0
KLO1 091903Z 02005KT 07/M02 A3037 RMK A01 T00681021  RH  053%=      5-min Rain = 0
KLO1 091904Z 01004KT 07/M02 A3037 RMK A01 T00681022  RH  053%=      5-min Rain = 0
KLO1 091905Z 35002KT 07/M02 A3037 RMK A01 T00681022  RH  052%=      5-min Rain = 0
KLO1 091906Z 34006KT 07/M02 A3037 RMK A01 T00691019  RH  054%=      5-min Rain = 0
KLO1 091907Z 34006KT 07/M02 A3037 RMK A01 T00701017  RH  054%=      5-min Rain = 0
KLO1 091908Z 31005KT 07/M02 A3037 RMK A01 T00691019  RH  053%=      5-min Rain = 0
KLO1 091909Z 34004KT 07/M02 A3037 RMK A01 T00681020  RH  054%=      5-min Rain = 0
KLO1 091910Z 33003KT 07/M02 A3037 RMK A01 T00671019  RH  054%=      5-min Rain = 0
KLO1 091911Z 01003KT 07/M02 A3037 RMK A01 T00671020  RH  054%=      5-min Rain = 0
KLO1 091912Z 03003KT 07/M02 A3037 RMK A01 T00681017  RH  054%=      5-min Rain = 0
KLO1 091913Z 01002KT 07/M02 A3037 RMK A01 T00701016  RH  054%=      5-min Rain = 0
KLO1 091914Z 33006KT 07/M01 A3037 RMK A01 T00711012  RH  055%=      5-min Rain = 0
KLO1 091915Z 34006KT 07/M01 A3037 RMK A01 T00721013  RH  055%=      5-min Rain = 0
KLO1 091916Z 34004KT 07/M02 A3037 RMK A01 T00701016  RH  054%=      5-min Rain = 0
KLO1 091917Z 32003KT 07/M02 A3037 RMK A01 T00691019  RH  054%=      5-min Rain = 0
KLO1 091918Z 32004KT 07/M01 A3037 RMK A01 T00691013  RH  056%=      5-min Rain = 0
KLO1 091919Z 32004KT 07/M01 A3037 RMK A01 T00691014  RH  055%=      5-min Rain = 0
KLO1 091920Z 35003KT 07/M01 A3037 RMK A01 T00701012  RH  056%=      5-min Rain = 0
KLO1 091921Z 02004KT 07/M01 A3037 RMK A01 T00711012  RH  056%=      5-min Rain = 0
KLO1 091922Z 35005KT 07/M01 A3037 RMK A01 T00711013  RH  055%=      5-min Rain = 0
KLO1 091923Z 01005KT 07/M02 A3037 RMK A01 T00721015  RH  054%=      5-min Rain = 0
KLO1 091924Z 04004KT 07/M01 A3037 RMK A01 T00721012  RH  055%=      5-min Rain = 0
KLO1 091925Z 02005KT 07/M01 A3037 RMK A01 T00741014  RH  054%=      5-min Rain = 0
KLO1 091926Z 03005KT 07/M02 A3037 RMK A01 T00741015  RH  053%=      5-min Rain = 0
KLO1 091927Z 01006KT 07/M02 A3036 RMK A01 T00741015  RH  053%=      5-min Rain = 0
KLO1 091928Z 03007KT 07/M01 A3036 RMK A01 T00731013  RH  054%=      5-min Rain = 0
KLO1 091929Z 04006KT 07/M02 A3036 RMK A01 T00721016  RH  053%=      5-min Rain = 0
KLO1 091930Z 03007KT 07/M01 A3036 RMK A01 T00711014  RH  055%=      5-min Rain = 0
KLO1 091931Z 04005KT 07/M02 A3036 RMK A01 T00711016  RH  054%=      5-min Rain = 0
KLO1 091932Z 05003KT 07/M02 A3036 RMK A01 T00711016  RH  054%=      5-min Rain = 0
KLO1 091933Z 03003KT 07/M02 A3036 RMK A01 T00701016  RH  054%=      5-min Rain = 0
KLO1 091934Z 01005KT 07/M01 A3036 RMK A01 T00711013  RH  055%=      5-min Rain = 0
KLO1 091935Z 00006KT 07/M01 A3036 RMK A01 T00731012  RH  055%=      5-min Rain = 0
KLO1 091936Z 01005KT 07/M02 A3036 RMK A01 T00731016  RH  053%=      5-min Rain = 0
KLO1 091937Z 02004KT 07/M02 A3036 RMK A01 T00721015  RH  054%=      5-min Rain = 0
KLO1 091938Z 04002KT 07/M02 A3036 RMK A01 T00721015  RH  054%=      5-min Rain = 0
KLO1 091939Z 02003KT 07/M01 A3036 RMK A01 T00721014  RH  054%=      5-min Rain = 0
KLO1 091940Z 34004KT 07/M01 A3036 RMK A01 T00741012  RH  055%=      5-min Rain = 0
KLO1 091941Z 33004KT 07/M02 A3036 RMK A01 T00741015  RH  053%=      5-min Rain = 0
KLO1 091942Z 31001KT 07/M02 A3036 RMK A01 T00721019  RH  052%=      5-min Rain = 0
KLO1 091943Z 34002KT 07/M02 A3036 RMK A01 T00721016  RH  054%=      5-min Rain = 0
KLO1 091944Z 33005KT 07/M01 A3036 RMK A01 T00731013  RH  054%=      5-min Rain = 0
KLO1 091945Z 32003KT 07/M01 A3036 RMK A01 T00741014  RH  054%=      5-min Rain = 0
KLO1 091946Z 31004KT 07/M01 A3036 RMK A01 T00741014  RH  054%=      5-min Rain = 0
KLO1 091947Z 30003KT 07/M01 A3036 RMK A01 T00741012  RH  054%=      5-min Rain = 0
KLO1 091948Z 31002KT 07/M01 A3036 RMK A01 T00731014  RH  054%=      5-min Rain = 0
KLO1 091949Z 02003KT 07/M01 A3036 RMK A01 T00741013  RH  054%=      5-min Rain = 0
KLO1 091950Z 03004KT 08/M01 A3036 RMK A01 T00751010  RH  055%=      5-min Rain = 0
KLO1 091951Z 35003KT 08/M01 A3036 RMK A01 T00771008  RH  055%=      5-min Rain = 0
KLO1 091952Z 34006KT 08/M01 A3036 RMK A01 T00771013  RH  053%=      5-min Rain = 0
KLO1 091953Z 34006KT 08/M01 A3036 RMK A01 T00761013  RH  053%=      5-min Rain = 0
KLO1 091954Z 36005KT 08/M01 A3036 RMK A01 T00751010  RH  055%=      5-min Rain = 0
KLO1 091955Z 00003KT 08/M01 A3036 RMK A01 T00761012  RH  054%=      5-min Rain = 0
KLO1 091956Z 01001KT 08/M01 A3036 RMK A01 T00761013  RH  053%=      5-min Rain = 0
KLO1 091957Z 03003KT 08/M01 A3036 RMK A01 T00761013  RH  053%=      5-min Rain = 0
KLO1 091958Z 01002KT 08/M02 A3036 RMK A01 T00771016  RH  052%=      5-min Rain = 0
KLO1 091959Z 32005KT 08/M01 A3036 RMK A01 T00771014  RH  052%=      5-min Rain = 0
KLO1 092000Z 32006KT 08/M01 A3036 RMK A01 T00771013  RH  053%=      5-min Rain = 0
KLO1 092001Z 32005KT 08/M01 A3036 RMK A01 T00761014  RH  053%=      5-min Rain = 0
KLO1 092002Z 31006KT 08/M01 A3036 RMK A01 T00761011  RH  054%=      5-min Rain = 0
KLO1 092003Z 31004KT 08/M01 A3036 RMK A01 T00761013  RH  053%=      5-min Rain = 0
KLO1 092004Z 34006KT 08/M02 A3036 RMK A01 T00751016  RH  052%=      5-min Rain = 0
KLO1 092005Z 34007KT 07/M01 A3036 RMK A01 T00741014  RH  053%=      5-min Rain = 0
KLO1 092006Z 33005KT 07/M01 A3036 RMK A01 T00741014  RH  054%=      5-min Rain = 0
KLO1 092007Z 33004KT 07/M02 A3035 RMK A01 T00741016  RH  053%=      5-min Rain = 0
KLO1 092008Z 33004KT 07/M01 A3035 RMK A01 T00741011  RH  055%=      5-min Rain = 0
KLO1 092009Z 35004KT 08/M01 A3035 RMK A01 T00761011  RH  054%=      5-min Rain = 0
KLO1 092010Z 02005KT 08/M01 A3035 RMK A01 T00761014  RH  053%=      5-min Rain = 0
KLO1 092011Z 35004KT 08/M01 A3035 RMK A01 T00771014  RH  053%=      5-min Rain = 0
KLO1 092012Z 01004KT 08/M02 A3035 RMK A01 T00771016  RH  052%=      5-min Rain = 0
KLO1 092013Z 35007KT 08/M01 A3035 RMK A01 T00771014  RH  052%=      5-min Rain = 0
KLO1 092014Z 34004KT 08/M02 A3035 RMK A01 T00771016  RH  051%=      5-min Rain = 0
KLO1 092015Z 35007KT 08/M01 A3035 RMK A01 T00771012  RH  053%=      5-min Rain = 0
KLO1 092016Z 34005KT 08/M02 A3035 RMK A01 T00781016  RH  051%=      5-min Rain = 0
KLO1 092017Z 34005KT 08/M01 A3035 RMK A01 T00771014  RH  052%=      5-min Rain = 0
KLO1 092018Z 34004KT 08/M02 A3035 RMK A01 T00771015  RH  052%=      5-min Rain = 0
KLO1 092019Z 35004KT 08/M01 A3035 RMK A01 T00771014  RH  053%=      5-min Rain = 0
KLO1 092020Z 35005KT 08/M01 A3035 RMK A01 T00781012  RH  053%=      5-min Rain = 0
KLO1 092021Z 33004KT 08/M02 A3035 RMK A01 T00791016  RH  051%=      5-min Rain = 0
KLO1 092022Z 31002KT 08/M02 A3035 RMK A01 T00781020  RH  050%=      5-min Rain = 0
KLO1 092023Z 33005KT 08/M02 A3035 RMK A01 T00771015  RH  052%=      5-min Rain = 0
KLO1 092024Z 32007KT 08/M01 A3035 RMK A01 T00781014  RH  052%=      5-min Rain = 0
KLO1 092025Z 32006KT 08/M01 A3035 RMK A01 T00771014  RH  052%=      5-min Rain = 0
KLO1 092026Z 31006KT 08/M02 A3035 RMK A01 T00771015  RH  052%=      5-min Rain = 0
KLO1 092027Z 31007KT 08/M01 A3035 RMK A01 T00761013  RH  053%=      5-min Rain = 0
KLO1 092028Z 32005KT 08/M01 A3035 RMK A01 T00761012  RH  054%=      5-min Rain = 0
KLO1 092029Z 31005KT 08/M01 A3035 RMK A01 T00761013  RH  053%=      5-min Rain = 0
KLO1 092030Z 30004KT 08/M01 A3035 RMK A01 T00761012  RH  053%=      5-min Rain = 0
KLO1 092031Z 29005KT 08/M01 A3035 RMK A01 T00771012  RH  053%=      5-min Rain = 0
KLO1 092032Z 28004KT 08/M01 A3035 RMK A01 T00771014  RH  053%=      5-min Rain = 0
KLO1 092033Z 29003KT 08/M02 A3035 RMK A01 T00761017  RH  052%=      5-min Rain = 0
KLO1 092034Z 28002KT 08/M01 A3035 RMK A01 T00761014  RH  053%=      5-min Rain = 0
KLO1 092035Z 30003KT 08/M02 A3035 RMK A01 T00761016  RH  052%=      5-min Rain = 0
KLO1 092036Z 34005KT 08/M01 A3035 RMK A01 T00771010  RH  054%=      5-min Rain = 0
KLO1 092037Z 33006KT 08/M01 A3035 RMK A01 T00791012  RH  053%=      5-min Rain = 0
KLO1 092038Z 32006KT 08/M01 A3035 RMK A01 T00801010  RH  053%=      5-min Rain = 0
KLO1 092039Z 33007KT 08/M01 A3035 RMK A01 T00801008  RH  054%=      5-min Rain = 0
KLO1 092040Z 32007KT 08/M01 A3035 RMK A01 T00811008  RH  053%=      5-min Rain = 0
KLO1 092041Z 32007KT 08/M01 A3035 RMK A01 T00801012  RH  052%=      5-min Rain = 0
KLO1 092042Z 31006KT 08/M01 A3035 RMK A01 T00791013  RH  052%=      5-min Rain = 0
KLO1 092043Z 31006KT 08/M02 A3035 RMK A01 T00781015  RH  052%=      5-min Rain = 0
KLO1 092044Z 32006KT 08/M01 A3035 RMK A01 T00781011  RH  053%=      5-min Rain = 0
KLO1 092045Z 33006KT 08/M01 A3035 RMK A01 T00791012  RH  053%=      5-min Rain = 0
KLO1 092046Z 34005KT 08/M02 A3035 RMK A01 T00781015  RH  052%=      5-min Rain = 0
KLO1 092047Z 34004KT 08/M02 A3035 RMK A01 T00781015  RH  052%=      5-min Rain = 0
KLO1 092048Z 34006KT 08/M01 A3035 RMK A01 T00781013  RH  052%=      5-min Rain = 0
KLO1 092049Z 34004KT 08/M01 A3035 RMK A01 T00791010  RH  054%=      5-min Rain = 0
KLO1 092050Z 35002KT 08/M01 A3035 RMK A01 T00791014  RH  052%=      5-min Rain = 0
KLO1 092051Z 34005KT 08/M01 A3035 RMK A01 T00801010  RH  053%=      5-min Rain = 0
KLO1 092052Z 35005KT 08/M01 A3035 RMK A01 T00811011  RH  052%=      5-min Rain = 0
KLO1 092053Z 35002KT 08/M02 A3035 RMK A01 T00811016  RH  050%=      5-min Rain = 0
KLO1 092054Z 35003KT 08/M01 A3035 RMK A01 T00801014  RH  051%=      5-min Rain = 0
KLO1 092055Z 34003KT 08/M01 A3035 RMK A01 T00811010  RH  053%=      5-min Rain = 0
KLO1 092056Z 34004KT 08/M01 A3035 RMK A01 T00811011  RH  052%=      5-min Rain = 0
KLO1 092057Z 34007KT 08/M01 A3035 RMK A01 T00831007  RH  053%=      5-min Rain = 0
KLO1 092058Z 35005KT 08/M01 A3035 RMK A01 T00831012  RH  051%=      5-min Rain = 0
KLO1 092059Z 34005KT 08/M01 A3035 RMK A01 T00821013  RH  051%=      5-min Rain = 0
KLO1 092100Z 33007KT 08/M01 A3035 RMK A01 T00811008  RH  053%=      5-min Rain = 0
KLO1 092101Z 33005KT 08/M01 A3035 RMK A01 T00811012  RH  052%=      5-min Rain = 0
KLO1 092102Z 35004KT 08/M02 A3035 RMK A01 T00791015  RH  051%=      5-min Rain = 0
KLO1 092103Z 00004KT 08/M01 A3034 RMK A01 T00791010  RH  053%=      5-min Rain = 0
KLO1 092104Z 01003KT 08/M01 A3034 RMK A01 T00801013  RH  052%=      5-min Rain = 0
KLO1 092105Z 33004KT 08/M01 A3034 RMK A01 T00811012  RH  052%=      5-min Rain = 0
KLO1 092106Z 34004KT 08/M01 A3034 RMK A01 T00811013  RH  052%=      5-min Rain = 0
KLO1 092107Z 33003KT 08/M01 A3034 RMK A01 T00801011  RH  053%=      5-min Rain = 0
KLO1 092108Z 33005KT 08/M01 A3034 RMK A01 T00811008  RH  053%=      5-min Rain = 0
KLO1 092109Z 33005KT 08/M01 A3034 RMK A01 T00811011  RH  052%=      5-min Rain = 0
KLO1 092110Z 34003KT 08/M01 A3034 RMK A01 T00811013  RH  052%=      5-min Rain = 0
KLO1 092111Z 00002KT 08/M01 A3034 RMK A01 T00801013  RH  052%=      5-min Rain = 0
KLO1 092112Z 02002KT 08/M01 A3034 RMK A01 T00801014  RH  051%=      5-min Rain = 0
KLO1 092113Z 35004KT 08/M01 A3034 RMK A01 T00811011  RH  052%=      5-min Rain = 0
KLO1 092114Z 02005KT 08/M01 A3034 RMK A01 T00821009  RH  053%=      5-min Rain = 0
KLO1 092115Z 01004KT 08/M01 A3034 RMK A01 T00831011  RH  052%=      5-min Rain = 0
KLO1 092116Z 35003KT 08/M01 A3034 RMK A01 T00831009  RH  053%=      5-min Rain = 0
KLO1 092117Z 30003KT 08/M01 A3034 RMK A01 T00831008  RH  053%=      5-min Rain = 0
KLO1 092118Z 28002KT 08/M01 A3034 RMK A01 T00831007  RH  053%=      5-min Rain = 0
KLO1 092119Z 27002KT 08/M01 A3034 RMK A01 T00831008  RH  053%=      5-min Rain = 0
KLO1 092120Z 30003KT 08/M01 A3034 RMK A01 T00841010  RH  052%=      5-min Rain = 0
KLO1 092121Z 32004KT 08/M01 A3034 RMK A01 T00841006  RH  053%=      5-min Rain = 0
KLO1 092122Z 32002KT 08/M01 A3034 RMK A01 T00831010  RH  052%=      5-min Rain = 0
KLO1 092123Z 31006KT 08/M01 A3034 RMK A01 T00831008  RH  052%=      5-min Rain = 0
KLO1 092124Z 32005KT 08/M01 A3034 RMK A01 T00831008  RH  053%=      5-min Rain = 0
KLO1 092125Z 31003KT 08/M01 A3034 RMK A01 T00821010  RH  052%=      5-min Rain = 0
KLO1 092126Z 30005KT 08/M01 A3034 RMK A01 T00811010  RH  053%=      5-min Rain = 0
KLO1 092127Z 30003KT 08/M01 A3034 RMK A01 T00811011  RH  052%=      5-min Rain = 0
KLO1 092128Z 32003KT 08/M01 A3034 RMK A01 T00811011  RH  052%=      5-min Rain = 0
KLO1 092129Z 31003KT 08/M01 A3034 RMK A01 T00811008  RH  053%=      5-min Rain = 0
KLO1 092130Z 29004KT 08/M01 A3034 RMK A01 T00821008  RH  053%=      5-min Rain = 0
KLO1 092131Z 29004KT 08/M01 A3034 RMK A01 T00821006  RH  054%=      5-min Rain = 0
KLO1 092132Z 30004KT 08/M01 A3034 RMK A01 T00831008  RH  053%=      5-min Rain = 0
KLO1 092133Z 33006KT 08/M01 A3034 RMK A01 T00831006  RH  053%=      5-min Rain = 0
KLO1 092134Z 32004KT 08/M01 A3034 RMK A01 T00821007  RH  053%=      5-min Rain = 0
KLO1 092135Z 33004KT 08/M01 A3034 RMK A01 T00821009  RH  053%=      5-min Rain = 0
KLO1 092136Z 34004KT 08/M01 A3034 RMK A01 T00821009  RH  053%=      5-min Rain = 0
KLO1 092137Z 34003KT 08/M01 A3034 RMK A01 T00821010  RH  052%=      5-min Rain = 0
KLO1 092138Z 32002KT 08/M01 A3034 RMK A01 T00821013  RH  051%=      5-min Rain = 0
KLO1 092139Z 31002KT 08/M01 A3034 RMK A01 T00821013  RH  051%=      5-min Rain = 0
KLO1 092140Z 33002KT 08/M01 A3034 RMK A01 T00821010  RH  052%=      5-min Rain = 0
KLO1 092141Z 31003KT 08/M01 A3034 RMK A01 T00841006  RH  053%=      5-min Rain = 0
KLO1 092142Z 29003KT 09/M01 A3034 RMK A01 T00851007  RH  053%=      5-min Rain = 0
KLO1 092143Z 30001KT 09/M01 A3034 RMK A01 T00851008  RH  052%=      5-min Rain = 0
KLO1 092144Z 31003KT 09/M01 A3034 RMK A01 T00851005  RH  053%=      5-min Rain = 0
KLO1 092145Z 32005KT 08/M01 A3034 RMK A01 T00841006  RH  053%=      5-min Rain = 0
KLO1 092146Z 33005KT 08/M01 A3034 RMK A01 T00841008  RH  052%=      5-min Rain = 0
KLO1 092147Z 34005KT 08/M01 A3034 RMK A01 T00831008  RH  053%=      5-min Rain = 0
KLO1 092148Z 34005KT 08/M01 A3034 RMK A01 T00831005  RH  054%=      5-min Rain = 0
KLO1 092149Z 31006KT 08/M00 A3034 RMK A01 T00841002  RH  055%=      5-min Rain = 0
KLO1 092150Z 30004KT 08/M01 A3034 RMK A01 T00841006  RH  053%=      5-min Rain = 0
KLO1 092151Z 31003KT 08/M01 A3034 RMK A01 T00841008  RH  053%=      5-min Rain = 0
KLO1 092152Z 32003KT 08/M01 A3034 RMK A01 T00831008  RH  053%=      5-min Rain = 0
KLO1 092153Z 32004KT 08/M01 A3034 RMK A01 T00831007  RH  053%=      5-min Rain = 0
KLO1 092154Z 31005KT 08/M01 A3034 RMK A01 T00831008  RH  053%=      5-min Rain = 0
KLO1 092155Z 32007KT 08/M01 A3034 RMK A01 T00831005  RH  054%=      5-min Rain = 0
KLO1 092156Z 32005KT 08/M00 A3034 RMK A01 T00831003  RH  055%=      5-min Rain = 0
KLO1 092157Z 30006KT 08/M00 A3034 RMK A01 T00841001  RH  055%=      5-min Rain = 0
KLO1 092158Z 31006KT 08/M00 A3034 RMK A01 T00841003  RH  055%=      5-min Rain = 0
KLO1 092159Z 30006KT 08/M01 A3034 RMK A01 T00841006  RH  053%=      5-min Rain = 0
KLO1 092200Z 31005KT 08/M00 A3034 RMK A01 T00831003  RH  054%=      5-min Rain = 0
KLO1 092201Z 30005KT 08/M00 A3034 RMK A01 T00831004  RH  054%=      5-min Rain = 0
KLO1 092202Z 31006KT 08/M00 A3034 RMK A01 T00831002  RH  055%=      5-min Rain = 0
KLO1 092203Z 31005KT 08/M00 A3034 RMK A01 T00841004  RH  054%=      5-min Rain = 0
KLO1 092204Z 31005KT 08/M00 A3034 RMK A01 T00831002  RH  055%=      5-min Rain = 0
KLO1 092205Z 31006KT 08/M00 A3034 RMK A01 T00841001  RH  055%=      5-min Rain = 0
KLO1 092206Z 32006KT 08/M00 A3034 RMK A01 T00841002  RH  055%=      5-min Rain = 0
KLO1 092207Z 32006KT 08/M00 A3034 RMK A01 T00841003  RH  054%=      5-min Rain = 0
KLO1 092208Z 32005KT 08/M01 A3034 RMK A01 T00831005  RH  054%=      5-min Rain = 0
KLO1 092209Z 34004KT 08/00 A3034 RMK A01 T00830000  RH  056%=      5-min Rain = 0
KLO1 092210Z 34005KT 08/00 A3034 RMK A01 T008300-0  RH  056%=      5-min Rain = 0
KLO1 092211Z 34006KT 08/M00 A3034 RMK A01 T00841001  RH  055%=      5-min Rain = 0
KLO1 092212Z 35005KT 08/M00 A3034 RMK A01 T00831004  RH  054%=      5-min Rain = 0
KLO1 092213Z 33005KT 08/M00 A3034 RMK A01 T00821002  RH  055%=      5-min Rain = 0
KLO1 092214Z 33005KT 08/00 A3034 RMK A01 T00830002  RH  057%=      5-min Rain = 0
KLO1 092215Z 32005KT 08/00 A3034 RMK A01 T00840004  RH  057%=      5-min Rain = 0
KLO1 092216Z 31004KT 08/00 A3034 RMK A01 T00840004  RH  057%=      5-min Rain = 0
KLO1 092217Z 30005KT 09/00 A3034 RMK A01 T00850001  RH  056%=      5-min Rain = 0
KLO1 092218Z 31003KT 08/M00 A3034 RMK A01 T00841002  RH  055%=      5-min Rain = 0
KLO1 092219Z 30002KT 08/M00 A3034 RMK A01 T00841003  RH  054%=      5-min Rain = 0
KLO1 092220Z 31002KT 08/M00 A3034 RMK A01 T00841002  RH  055%=      5-min Rain = 0
KLO1 092221Z 31003KT 08/M00 A3034 RMK A01 T00841001  RH  055%=      5-min Rain = 0
KLO1 092222Z 33005KT 08/M00 A3034 RMK A01 T00841002  RH  055%=      5-min Rain = 0
KLO1 092223Z 34005KT 08/M00 A3034 RMK A01 T00841001  RH  055%=      5-min Rain = 0
KLO1 092224Z 32004KT 08/M00 A3034 RMK A01 T00831001  RH  055%=      5-min Rain = 0
KLO1 092225Z 32005KT 08/00 A3034 RMK A01 T008400-0  RH  056%=      5-min Rain = 0
KLO1 092226Z 34004KT 08/M00 A3034 RMK A01 T00831001  RH  055%=      5-min Rain = 0
KLO1 092227Z 33003KT 08/00 A3034 RMK A01 T008300-0  RH  056%=      5-min Rain = 0
KLO1 092228Z 33005KT 08/00 A3034 RMK A01 T008300-0  RH  056%=      5-min Rain = 0
KLO1 092229Z 32006KT 08/00 A3034 RMK A01 T008400-0  RH  055%=      5-min Rain = 0
KLO1 092230Z 32006KT 08/00 A3034 RMK A01 T00840000  RH  056%=      5-min Rain = 0
KLO1 092231Z 32005KT 08/M00 A3035 RMK A01 T00841002  RH  055%=      5-min Rain = 0
KLO1 092232Z 31005KT 08/M01 A3035 RMK A01 T00831006  RH  054%=      5-min Rain = 0
KLO1 092233Z 30005KT 08/M01 A3035 RMK A01 T00821005  RH  054%=      5-min Rain = 0
KLO1 092234Z 31004KT 08/M01 A3035 RMK A01 T00821006  RH  054%=      5-min Rain = 0
KLO1 092235Z 32005KT 08/M00 A3035 RMK A01 T00821004  RH  055%=      5-min Rain = 0
KLO1 092236Z 32004KT 08/M01 A3035 RMK A01 T00821005  RH  054%=      5-min Rain = 0
KLO1 092237Z 34005KT 08/M00 A3035 RMK A01 T00821003  RH  055%=      5-min Rain = 0
KLO1 092238Z 32005KT 08/M00 A3035 RMK A01 T00821003  RH  055%=      5-min Rain = 0
KLO1 092239Z 31005KT 08/M00 A3035 RMK A01 T00821001  RH  056%=      5-min Rain = 0
KLO1 092240Z 31006KT 08/M00 A3035 RMK A01 T00821003  RH  055%=      5-min Rain = 0
KLO1 092241Z 32005KT 08/M00 A3035 RMK A01 T00821003  RH  055%=      5-min Rain = 0
KLO1 092242Z 31004KT 08/M00 A3035 RMK A01 T00821004  RH  055%=      5-min Rain = 0
KLO1 092243Z 31004KT 08/M00 A3035 RMK A01 T00821004  RH  055%=      5-min Rain = 0
KLO1 092244Z 33005KT 08/00 A3035 RMK A01 T008200-0  RH  056%=      5-min Rain = 0
KLO1 092245Z 32005KT 08/M00 A3035 RMK A01 T00821001  RH  056%=      5-min Rain = 0
KLO1 092246Z 31006KT 08/M00 A3035 RMK A01 T00821001  RH  056%=      5-min Rain = 0
KLO1 092247Z 31005KT 08/M00 A3035 RMK A01 T00821003  RH  055%=      5-min Rain = 0
KLO1 092248Z 33005KT 08/M00 A3035 RMK A01 T00821004  RH  055%=      5-min Rain = 0
KLO1 092249Z 32005KT 08/M00 A3035 RMK A01 T00811001  RH  056%=      5-min Rain = 0
KLO1 092250Z 32005KT 08/M00 A3035 RMK A01 T00811001  RH  056%=      5-min Rain = 0
KLO1 092251Z 32005KT 08/M00 A3035 RMK A01 T00811001  RH  056%=      5-min Rain = 0
KLO1 092252Z 32006KT 08/00 A3035 RMK A01 T00810001  RH  057%=      5-min Rain = 0
KLO1 092253Z 33005KT 08/00 A3035 RMK A01 T00810000  RH  057%=      5-min Rain = 0
KLO1 092254Z 32005KT 08/M00 A3035 RMK A01 T00801002  RH  056%=      5-min Rain = 0
KLO1 092255Z 32007KT 08/00 A3035 RMK A01 T00800001  RH  057%=      5-min Rain = 0
KLO1 092256Z 33006KT 08/00 A3035 RMK A01 T00800003  RH  058%=      5-min Rain = 0
KLO1 092257Z 33006KT 08/00 A3035 RMK A01 T00800002  RH  058%=      5-min Rain = 0
KLO1 092258Z 33005KT 08/00 A3035 RMK A01 T00800002  RH  058%=      5-min Rain = 0
KLO1 092259Z 33005KT 08/M00 A3035 RMK A01 T00801001  RH  057%=      5-min Rain = 0
KLO1 092300Z 33005KT 08/00 A3035 RMK A01 T008000-0  RH  057%=      5-min Rain = 0
KLO1 092301Z 33004KT 08/00 A3035 RMK A01 T007900-0  RH  057%=      5-min Rain = 0
KLO1 092302Z 33004KT 08/M00 A3035 RMK A01 T00791003  RH  056%=      5-min Rain = 0
KLO1 092303Z 33004KT 08/M00 A3035 RMK A01 T00791002  RH  057%=      5-min Rain = 0
KLO1 092304Z 32004KT 08/M00 A3035 RMK A01 T00791001  RH  057%=      5-min Rain = 0
KLO1 092305Z 32004KT 08/00 A3035 RMK A01 T00790003  RH  059%=      5-min Rain = 0
KLO1 092306Z 32004KT 08/00 A3035 RMK A01 T00790004  RH  059%=      5-min Rain = 0
KLO1 092307Z 32004KT 08/00 A3035 RMK A01 T00780004  RH  059%=      5-min Rain = 0
KLO1 092308Z 32004KT 08/00 A3035 RMK A01 T00780004  RH  060%=      5-min Rain = 0
KLO1 092309Z 32005KT 08/01 A3035 RMK A01 T00780006  RH  060%=      5-min Rain = 0
KLO1 092310Z 33005KT 08/00 A3035 RMK A01 T00780004  RH  059%=      5-min Rain = 0
KLO1 092311Z 33005KT 08/01 A3035 RMK A01 T00780005  RH  060%=      5-min Rain = 0
KLO1 092312Z 33004KT 08/00 A3035 RMK A01 T00770004  RH  060%=      5-min Rain = 0
KLO1 092313Z 33004KT 08/00 A3035 RMK A01 T00770003  RH  060%=      5-min Rain = 0
KLO1 092314Z 33004KT 08/00 A3035 RMK A01 T00770004  RH  060%=      5-min Rain = 0
KLO1 092315Z 32004KT 08/00 A3035 RMK A01 T00760003  RH  060%=      5-min Rain = 0
KLO1 092316Z 32003KT 08/00 A3035 RMK A01 T00760003  RH  060%=      5-min Rain = 0
KLO1 092317Z 32003KT 08/01 A3035 RMK A01 T00760006  RH  061%=      5-min Rain = 0
KLO1 092318Z 31004KT 08/01 A3035 RMK A01 T00760008  RH  062%=      5-min Rain = 0
KLO1 092319Z 31003KT 08/01 A3035 RMK A01 T00750009  RH  063%=      5-min Rain = 0
KLO1 092320Z 32004KT 08/01 A3035 RMK A01 T00750009  RH  063%=      5-min Rain = 0
KLO1 092321Z 31004KT 07/01 A3035 RMK A01 T00740009  RH  063%=      5-min Rain = 0
KLO1 092322Z 32004KT 07/01 A3035 RMK A01 T00740009  RH  063%=      5-min Rain = 0
KLO1 092323Z 32004KT 07/01 A3035 RMK A01 T00730009  RH  064%=      5-min Rain = 0
KLO1 092324Z 32004KT 07/01 A3035 RMK A01 T00730008  RH  064%=      5-min Rain = 0
KLO1 092325Z 32004KT 07/01 A3035 RMK A01 T00730010  RH  064%=      5-min Rain = 0
KLO1 092326Z 32004KT 07/01 A3035 RMK A01 T00720011  RH  065%=      5-min Rain = 0
KLO1 092327Z 32004KT 07/01 A3035 RMK A01 T00710012  RH  066%=      5-min Rain = 0
KLO1 092328Z 32004KT 07/01 A3035 RMK A01 T00710012  RH  066%=      5-min Rain = 0
KLO1 092329Z 32004KT 07/01 A3035 RMK A01 T00700012  RH  067%=      5-min Rain = 0
KLO1 092330Z 32004KT 07/01 A3035 RMK A01 T00700011  RH  066%=      5-min Rain = 0
KLO1 092331Z 32004KT 07/01 A3035 RMK A01 T00690011  RH  067%=      5-min Rain = 0
KLO1 092332Z 32003KT 07/01 A3035 RMK A01 T00690012  RH  067%=      5-min Rain = 0
KLO1 092333Z 32004KT 07/01 A3035 RMK A01 T00680013  RH  068%=      5-min Rain = 0
KLO1 092334Z 32004KT 07/01 A3035 RMK A01 T00670013  RH  068%=      5-min Rain = 0
KLO1 092335Z 32004KT 07/01 A3035 RMK A01 T00670014  RH  069%=      5-min Rain = 0
KLO1 092336Z 32004KT 07/01 A3035 RMK A01 T00660012  RH  069%=      5-min Rain = 0
KLO1 092337Z 32004KT 07/01 A3035 RMK A01 T00650012  RH  069%=      5-min Rain = 0
KLO1 092338Z 33003KT 06/01 A3035 RMK A01 T00640013  RH  070%=      5-min Rain = 0
KLO1 092339Z 33004KT 06/01 A3035 RMK A01 T00630013  RH  070%=      5-min Rain = 0
KLO1 092340Z 33004KT 06/01 A3035 RMK A01 T00630014  RH  071%=      5-min Rain = 0
KLO1 092341Z 32004KT 06/01 A3035 RMK A01 T00620014  RH  071%=      5-min Rain = 0
KLO1 092342Z 32004KT 06/01 A3035 RMK A01 T00620013  RH  071%=      5-min Rain = 0
KLO1 092343Z 33004KT 06/01 A3035 RMK A01 T00620012  RH  070%=      5-min Rain = 0
KLO1 092344Z 33004KT 06/01 A3035 RMK A01 T00620011  RH  070%=      5-min Rain = 0
KLO1 092345Z 33003KT 06/01 A3035 RMK A01 T00610010  RH  070%=      5-min Rain = 0
KLO1 092346Z 33003KT 06/01 A3035 RMK A01 T00610011  RH  070%=      5-min Rain = 0
KLO1 092347Z 34004KT 06/01 A3035 RMK A01 T00610012  RH  071%=      5-min Rain = 0
KLO1 092348Z 34003KT 06/01 A3035 RMK A01 T00600013  RH  071%=      5-min Rain = 0
KLO1 092349Z 34003KT 06/01 A3035 RMK A01 T00600011  RH  071%=      5-min Rain = 0
KLO1 092350Z 34003KT 06/01 A3035 RMK A01 T00600010  RH  070%=      5-min Rain = 0
KLO1 092351Z 34003KT 06/01 A3035 RMK A01 T00610009  RH  069%=      5-min Rain = 0
KLO1 092352Z 34003KT 06/01 A3035 RMK A01 T00610009  RH  069%=      5-min Rain = 0
KLO1 092353Z 34003KT 06/01 A3035 RMK A01 T00610009  RH  069%=      5-min Rain = 0
KLO1 092354Z 34003KT 06/01 A3035 RMK A01 T00610009  RH  069%=      5-min Rain = 0
KLO1 092355Z 34003KT 06/01 A3035 RMK A01 T00610010  RH  070%=      5-min Rain = 0
KLO1 092356Z 34003KT 06/01 A3035 RMK A01 T00610011  RH  070%=      5-min Rain = 0
KLO1 092357Z 34003KT 06/01 A3035 RMK A01 T00600011  RH  071%=      5-min Rain = 0
KLO1 092358Z 34003KT 06/01 A3035 RMK A01 T00600010  RH  070%=      5-min Rain = 0
KLO1 092359Z 34003KT 06/01 A3035 RMK A01 T00600010  RH  070%=      5-min Rain = 0
KLO1 100000Z 34004KT 06/01 A3035 RMK A01 T00600009  RH  070%=      5-min Rain = 0
KLO1 100001Z 34004KT 06/01 A3035 RMK A01 T00600007  RH  069%=      5-min Rain = 0
KLO1 100002Z 34004KT 06/01 A3035 RMK A01 T00600007  RH  069%=      5-min Rain = 0
KLO1 100003Z 34004KT 06/01 A3035 RMK A01 T00600007  RH  069%=      5-min Rain = 0
KLO1 100004Z 34004KT 06/01 A3035 RMK A01 T00600007  RH  069%=      5-min Rain = 0
KLO1 100005Z 34003KT 06/01 A3035 RMK A01 T00600008  RH  069%=      5-min Rain = 0
KLO1 100006Z 34004KT 06/01 A3035 RMK A01 T00590008  RH  070%=      5-min Rain = 0
KLO1 100007Z 34004KT 06/01 A3035 RMK A01 T00590009  RH  070%=      5-min Rain = 0
KLO1 100008Z 34004KT 06/01 A3036 RMK A01 T00590009  RH  070%=      5-min Rain = 0
KLO1 100009Z 34004KT 06/01 A3036 RMK A01 T00590010  RH  071%=      5-min Rain = 0
KLO1 100010Z 35004KT 06/01 A3036 RMK A01 T00580009  RH  071%=      5-min Rain = 0
KLO1 100011Z 35004KT 06/01 A3036 RMK A01 T00580009  RH  071%=      5-min Rain = 0
KLO1 100012Z 35004KT 06/01 A3036 RMK A01 T00580009  RH  071%=      5-min Rain = 0
KLO1 100013Z 35004KT 06/01 A3036 RMK A01 T00580009  RH  071%=      5-min Rain = 0
KLO1 100014Z 34004KT 06/01 A3036 RMK A01 T00580009  RH  071%=      5-min Rain = 0
KLO1 100015Z 34004KT 06/01 A3036 RMK A01 T00580009  RH  071%=      5-min Rain = 0
KLO1 100016Z 34004KT 06/01 A3036 RMK A01 T00590010  RH  071%=      5-min Rain = 0
KLO1 100017Z 34004KT 06/01 A3036 RMK A01 T00580009  RH  071%=      5-min Rain = 0
KLO1 100018Z 34004KT 06/01 A3036 RMK A01 T00570009  RH  071%=      5-min Rain = 0
KLO1 100019Z 34004KT 06/01 A3036 RMK A01 T00570009  RH  072%=      5-min Rain = 0
KLO1 100020Z 34004KT 06/01 A3036 RMK A01 T00560009  RH  072%=      5-min Rain = 0
KLO1 100021Z 34004KT 06/01 A3036 RMK A01 T00550009  RH  072%=      5-min Rain = 0
KLO1 100022Z 34004KT 06/01 A3036 RMK A01 T00550010  RH  073%=      5-min Rain = 0
KLO1 100023Z 35004KT 05/01 A3036 RMK A01 T00540009  RH  073%=      5-min Rain = 0
KLO1 100024Z 35004KT 05/01 A3036 RMK A01 T00530008  RH  073%=      5-min Rain = 0
KLO1 100025Z 35004KT 05/01 A3036 RMK A01 T00540007  RH  072%=      5-min Rain = 0
KLO1 100026Z 35004KT 05/01 A3036 RMK A01 T00540007  RH  071%=      5-min Rain = 0
KLO1 100027Z 35003KT 05/01 A3036 RMK A01 T00540006  RH  071%=      5-min Rain = 0
KLO1 100028Z 35003KT 06/01 A3036 RMK A01 T00550006  RH  071%=      5-min Rain = 0
KLO1 100029Z 35003KT 06/01 A3036 RMK A01 T00560006  RH  070%=      5-min Rain = 0
KLO1 100030Z 35003KT 06/01 A3036 RMK A01 T00560005  RH  070%=      5-min Rain = 0
KLO1 100031Z 35004KT 06/01 A3036 RMK A01 T00570005  RH  069%=      5-min Rain = 0
KLO1 100032Z 35004KT 06/01 A3036 RMK A01 T00570005  RH  069%=      5-min Rain = 0
KLO1 100033Z 35004KT 06/00 A3036 RMK A01 T00570004  RH  069%=      5-min Rain = 0
KLO1 100034Z 35004KT 06/01 A3036 RMK A01 T00580005  RH  069%=      5-min Rain = 0
KLO1 100035Z 35003KT 06/01 A3036 RMK A01 T00580005  RH  069%=      5-min Rain = 0
KLO1 100036Z 36003KT 06/01 A3036 RMK A01 T00580006  RH  069%=      5-min Rain = 0
KLO1 100037Z 35004KT 06/01 A3036 RMK A01 T00580006  RH  069%=      5-min Rain = 0
KLO1 100038Z 00003KT 06/01 A3036 RMK A01 T00580005  RH  069%=      5-min Rain = 0
KLO1 100039Z 00003KT 06/01 A3036 RMK A01 T00580005  RH  069%=      5-min Rain = 0
KLO1 100040Z 01003KT 06/01 A3036 RMK A01 T00580006  RH  069%=      5-min Rain = 0
KLO1 100041Z 00003KT 06/01 A3036 RMK A01 T00580006  RH  069%=      5-min Rain = 0
KLO1 100042Z 36003KT 06/01 A3036 RMK A01 T00580006  RH  069%=      5-min Rain = 0
KLO1 100043Z 36002KT 06/01 A3036 RMK A01 T00570007  RH  070%=      5-min Rain = 0
KLO1 100044Z 36003KT 06/01 A3036 RMK A01 T00560007  RH  071%=      5-min Rain = 0
KLO1 100045Z 00003KT 06/01 A3036 RMK A01 T00550006  RH  071%=      5-min Rain = 0
KLO1 100046Z 36003KT 06/01 A3036 RMK A01 T00550006  RH  071%=      5-min Rain = 0
KLO1 100047Z 00003KT 05/01 A3036 RMK A01 T00540007  RH  072%=      5-min Rain = 0
KLO1 100048Z 36003KT 05/01 A3036 RMK A01 T00520008  RH  073%=      5-min Rain = 0
KLO1 100049Z 36003KT 05/01 A3036 RMK A01 T00510008  RH  074%=      5-min Rain = 0
KLO1 100050Z 36003KT 05/01 A3036 RMK A01 T00500007  RH  074%=      5-min Rain = 0
KLO1 100051Z 36003KT 05/01 A3036 RMK A01 T00500007  RH  074%=      5-min Rain = 0
KLO1 100052Z 01003KT 05/01 A3036 RMK A01 T00500006  RH  073%=      5-min Rain = 0
KLO1 100053Z 36003KT 05/01 A3036 RMK A01 T00500006  RH  073%=      5-min Rain = 0
KLO1 100054Z 35003KT 05/01 A3036 RMK A01 T00500007  RH  074%=      5-min Rain = 0
KLO1 100055Z 36003KT 05/01 A3036 RMK A01 T00490008  RH  075%=      5-min Rain = 0
KLO1 100056Z 36002KT 05/01 A3036 RMK A01 T00480007  RH  075%=      5-min Rain = 0
KLO1 100057Z 35002KT 05/01 A3036 RMK A01 T00470007  RH  075%=      5-min Rain = 0
KLO1 100058Z 36002KT 05/01 A3036 RMK A01 T00460006  RH  076%=      5-min Rain = 0
KLO1 100059Z 35002KT 05/01 A3036 RMK A01 T00460008  RH  076%=      5-min Rain = 0
KLO1 100100Z 36002KT 05/01 A3036 RMK A01 T00460009  RH  077%=      5-min Rain = 0
KLO1 100101Z 35002KT 05/01 A3036 RMK A01 T00450009  RH  077%=      5-min Rain = 0
KLO1 100102Z 35002KT 05/01 A3036 RMK A01 T00450009  RH  077%=      5-min Rain = 0
KLO1 100103Z 35002KT 05/01 A3036 RMK A01 T00450009  RH  077%=      5-min Rain = 0
KLO1 100104Z 34001KT 04/01 A3036 RMK A01 T00440008  RH  077%=      5-min Rain = 0
KLO1 100105Z 35002KT 04/01 A3036 RMK A01 T00440009  RH  078%=      5-min Rain = 0
KLO1 100106Z 35002KT 04/01 A3036 RMK A01 T00440009  RH  078%=      5-min Rain = 0
KLO1 100107Z 35002KT 04/01 A3036 RMK A01 T00440010  RH  078%=      5-min Rain = 0
KLO1 100108Z 35002KT 04/01 A3036 RMK A01 T00440010  RH  078%=      5-min Rain = 0
KLO1 100109Z 35002KT 04/01 A3036 RMK A01 T00440010  RH  079%=      5-min Rain = 0
KLO1 100110Z 35002KT 04/01 A3036 RMK A01 T00440011  RH  079%=      5-min Rain = 0
KLO1 100111Z 35002KT 04/01 A3036 RMK A01 T00430011  RH  079%=      5-min Rain = 0
KLO1 100112Z 35002KT 04/01 A3036 RMK A01 T00430012  RH  080%=      5-min Rain = 0
KLO1 100113Z 36002KT 04/01 A3036 RMK A01 T00430012  RH  080%=      5-min Rain = 0
KLO1 100114Z 36002KT 04/01 A3036 RMK A01 T00430011  RH  080%=      5-min Rain = 0
KLO1 100115Z 35002KT 04/01 A3036 RMK A01 T00430010  RH  080%=      5-min Rain = 0
KLO1 100116Z 36002KT 04/01 A3036 RMK A01 T00430010  RH  080%=      5-min Rain = 0
KLO1 100117Z 36002KT 04/01 A3036 RMK A01 T00420010  RH  080%=      5-min Rain = 0
KLO1 100118Z 36002KT 04/01 A3036 RMK A01 T00420011  RH  080%=      5-min Rain = 0
KLO1 100119Z 36002KT 04/01 A3036 RMK A01 T00420011  RH  080%=      5-min Rain = 0
KLO1 100120Z 36002KT 04/01 A3036 RMK A01 T00410010  RH  080%=      5-min Rain = 0
KLO1 100121Z 00002KT 04/01 A3036 RMK A01 T00420009  RH  080%=      5-min Rain = 0
KLO1 100122Z 36002KT 04/01 A3036 RMK A01 T00420009  RH  079%=      5-min Rain = 0
KLO1 100123Z 00002KT 04/01 A3036 RMK A01 T00420009  RH  079%=      5-min Rain = 0
KLO1 100124Z 36002KT 04/01 A3036 RMK A01 T00420009  RH  079%=      5-min Rain = 0
KLO1 100125Z 36002KT 04/01 A3036 RMK A01 T00420010  RH  080%=      5-min Rain = 0
KLO1 100126Z 36003KT 04/01 A3036 RMK A01 T00420010  RH  080%=      5-min Rain = 0
KLO1 100127Z 00003KT 04/01 A3036 RMK A01 T00420010  RH  079%=      5-min Rain = 0
KLO1 100128Z 00003KT 04/01 A3036 RMK A01 T00420010  RH  080%=      5-min Rain = 0
KLO1 100129Z 00003KT 04/01 A3036 RMK A01 T00420009  RH  079%=      5-min Rain = 0
KLO1 100130Z 00003KT 04/01 A3036 RMK A01 T00410008  RH  079%=      5-min Rain = 0
KLO1 100131Z 00003KT 04/01 A3036 RMK A01 T00410007  RH  079%=      5-min Rain = 0
KLO1 100132Z 36004KT 04/01 A3036 RMK A01 T00420006  RH  078%=      5-min Rain = 0
KLO1 100133Z 00003KT 04/01 A3036 RMK A01 T00430006  RH  077%=      5-min Rain = 0
KLO1 100134Z 36004KT 04/01 A3036 RMK A01 T00440006  RH  076%=      5-min Rain = 0
KLO1 100135Z 36004KT 05/01 A3037 RMK A01 T00450006  RH  076%=      5-min Rain = 0
KLO1 100136Z 36004KT 05/01 A3037 RMK A01 T00450005  RH  075%=      5-min Rain = 0
KLO1 100137Z 36004KT 05/01 A3037 RMK A01 T00450005  RH  075%=      5-min Rain = 0
KLO1 100138Z 36004KT 05/01 A3037 RMK A01 T00450005  RH  075%=      5-min Rain = 0
KLO1 100139Z 36003KT 05/01 A3037 RMK A01 T00460005  RH  075%=      5-min Rain = 0
KLO1 100140Z 36004KT 05/01 A3037 RMK A01 T00460005  RH  074%=      5-min Rain = 0
KLO1 100141Z 36003KT 05/01 A3037 RMK A01 T00470005  RH  074%=      5-min Rain = 0
KLO1 100142Z 36003KT 05/01 A3037 RMK A01 T00470005  RH  074%=      5-min Rain = 0
KLO1 100143Z 36002KT 05/01 A3037 RMK A01 T00470005  RH  075%=      5-min Rain = 0
KLO1 100144Z 36003KT 05/01 A3037 RMK A01 T00460005  RH  075%=      5-min Rain = 0
KLO1 100145Z 36003KT 05/01 A3037 RMK A01 T00460005  RH  075%=      5-min Rain = 0
KLO1 100146Z 36003KT 05/01 A3037 RMK A01 T00450005  RH  075%=      5-min Rain = 0
KLO1 100147Z 36003KT 05/01 A3037 RMK A01 T00450005  RH  075%=      5-min Rain = 0
KLO1 100148Z 00003KT 04/01 A3037 RMK A01 T00440006  RH  076%=      5-min Rain = 0
KLO1 100149Z 00003KT 04/01 A3037 RMK A01 T00430005  RH  076%=      5-min Rain = 0
KLO1 100150Z 35002KT 04/01 A3037 RMK A01 T00430005  RH  077%=      5-min Rain = 0
KLO1 100151Z 35002KT 04/01 A3037 RMK A01 T00420005  RH  077%=      5-min Rain = 0
KLO1 100152Z 35003KT 04/01 A3037 RMK A01 T00410005  RH  077%=      5-min Rain = 0
KLO1 100153Z 35002KT 04/01 A3037 RMK A01 T00400005  RH  078%=      5-min Rain = 0
KLO1 100154Z 35002KT 04/00 A3037 RMK A01 T00380003  RH  078%=      5-min Rain = 0
KLO1 100155Z 35002KT 04/00 A3037 RMK A01 T003500-0  RH  078%=      5-min Rain = 0
KLO1 100156Z 35002KT 03/M00 A3037 RMK A01 T00321002  RH  078%=      5-min Rain = 0
KLO1 100157Z 35002KT 03/M00 A3037 RMK A01 T00291003  RH  080%=      5-min Rain = 0
KLO1 100158Z 34002KT 03/M00 A3037 RMK A01 T00261003  RH  081%=      5-min Rain = 0
KLO1 100159Z 34002KT 02/M00 A3037 RMK A01 T00241004  RH  082%=      5-min Rain = 0
KLO1 100200Z 34002KT 02/M00 A3037 RMK A01 T00231004  RH  083%=      5-min Rain = 0
KLO1 100201Z 34001KT 02/M00 A3037 RMK A01 T00221003  RH  084%=      5-min Rain = 0
KLO1 100202Z 33001KT 02/M00 A3037 RMK A01 T00211003  RH  084%=      5-min Rain = 0
KLO1 100203Z 33002KT 02/M00 A3037 RMK A01 T00211002  RH  085%=      5-min Rain = 0
KLO1 100204Z 33002KT 02/M00 A3037 RMK A01 T00201002  RH  085%=      5-min Rain = 0
KLO1 100205Z 34002KT 02/M00 A3037 RMK A01 T00201002  RH  085%=      5-min Rain = 0
KLO1 100206Z 34002KT 02/M00 A3037 RMK A01 T00201001  RH  086%=      5-min Rain = 0
KLO1 100207Z 34002KT 02/M00 A3037 RMK A01 T00201001  RH  086%=      5-min Rain = 0
KLO1 100208Z 34003KT 02/00 A3038 RMK A01 T002000-0  RH  087%=      5-min Rain = 0
KLO1 100209Z 34002KT 02/00 A3038 RMK A01 T002000-0  RH  087%=      5-min Rain = 0
KLO1 100210Z 35003KT 02/M00 A3038 RMK A01 T00191001  RH  086%=      5-min Rain = 0
KLO1 100211Z 34003KT 02/M00 A3038 RMK A01 T00191001  RH  086%=      5-min Rain = 0
KLO1 100212Z 35003KT 02/M00 A3038 RMK A01 T00191001  RH  087%=      5-min Rain = 0
KLO1 100213Z 35002KT 02/00 A3038 RMK A01 T001900-0  RH  087%=      5-min Rain = 0
KLO1 100214Z 00002KT 02/00 A3038 RMK A01 T00210002  RH  087%=      5-min Rain = 0
KLO1 100215Z 02002KT 02/00 A3038 RMK A01 T00220003  RH  088%=      5-min Rain = 0
KLO1 100216Z 01002KT 02/00 A3038 RMK A01 T00230004  RH  088%=      5-min Rain = 0
KLO1 100217Z 01003KT 02/01 A3038 RMK A01 T00240005  RH  088%=      5-min Rain = 0
KLO1 100218Z 01004KT 03/01 A3038 RMK A01 T00250006  RH  087%=      5-min Rain = 0
KLO1 100219Z 01005KT 03/01 A3038 RMK A01 T00270007  RH  086%=      5-min Rain = 0
KLO1 100220Z 01005KT 03/01 A3038 RMK A01 T00300008  RH  086%=      5-min Rain = 0
KLO1 100221Z 01004KT 03/01 A3038 RMK A01 T00320008  RH  085%=      5-min Rain = 0
KLO1 100222Z 01004KT 03/01 A3038 RMK A01 T00330008  RH  084%=      5-min Rain = 0
KLO1 100223Z 01004KT 03/01 A3038 RMK A01 T00340008  RH  083%=      5-min Rain = 0
KLO1 100224Z 01004KT 04/01 A3038 RMK A01 T00350007  RH  082%=      5-min Rain = 0
KLO1 100225Z 01003KT 04/01 A3038 RMK A01 T00360007  RH  081%=      5-min Rain = 0
KLO1 100226Z 01003KT 04/01 A3038 RMK A01 T00360006  RH  081%=      5-min Rain = 0
KLO1 100227Z 01003KT 04/01 A3038 RMK A01 T00360005  RH  080%=      5-min Rain = 0
KLO1 100228Z 02003KT 04/00 A3038 RMK A01 T00350004  RH  080%=      5-min Rain = 0
KLO1 100229Z 01003KT 03/00 A3038 RMK A01 T00340003  RH  080%=      5-min Rain = 0
KLO1 100230Z 01002KT 03/00 A3038 RMK A01 T00340003  RH  080%=      5-min Rain = 0
KLO1 100231Z 01002KT 03/00 A3038 RMK A01 T00330002  RH  080%=      5-min Rain = 0
KLO1 100232Z 01002KT 03/00 A3038 RMK A01 T00320002  RH  080%=      5-min Rain = 0
KLO1 100233Z 00002KT 03/00 A3038 RMK A01 T00320001  RH  081%=      5-min Rain = 0
KLO1 100234Z 02001KT 03/00 A3038 RMK A01 T00310001  RH  081%=      5-min Rain = 0
KLO1 100235Z 01003KT 03/00 A3038 RMK A01 T00300000  RH  081%=      5-min Rain = 0
KLO1 100236Z 02003KT 03/00 A3038 RMK A01 T00300001  RH  081%=      5-min Rain = 0
KLO1 100237Z 02003KT 03/00 A3038 RMK A01 T00300001  RH  081%=      5-min Rain = 0
KLO1 100238Z 01003KT 03/00 A3038 RMK A01 T00300001  RH  081%=      5-min Rain = 0
KLO1 100239Z 01003KT 03/00 A3038 RMK A01 T00300001  RH  081%=      5-min Rain = 0
KLO1 100240Z 01003KT 03/00 A3038 RMK A01 T00300000  RH  081%=      5-min Rain = 0
KLO1 100241Z 01003KT 03/00 A3038 RMK A01 T00300001  RH  081%=      5-min Rain = 0
KLO1 100242Z 01002KT 03/00 A3038 RMK A01 T00290001  RH  081%=      5-min Rain = 0
KLO1 100243Z 02002KT 03/00 A3038 RMK A01 T00290000  RH  081%=      5-min Rain = 0
KLO1 100244Z 01001KT 03/00 A3038 RMK A01 T00290000  RH  081%=      5-min Rain = 0
KLO1 100245Z 36000KT 03/00 A3038 RMK A01 T00290000  RH  081%=      5-min Rain = 0
KLO1 100246Z 33000KT 03/M00 A3038 RMK A01 T00281002  RH  081%=      5-min Rain = 0
KLO1 100247Z 33000KT 03/M01 A3038 RMK A01 T00251005  RH  081%=      5-min Rain = 0
KLO1 100248Z 00000KT 02/M00 A3038 RMK A01 T00231004  RH  082%=      5-min Rain = 0
KLO1 100249Z 36000KT 02/M00 A3038 RMK A01 T00221003  RH  084%=      5-min Rain = 0
KLO1 100250Z 31000KT 02/M00 A3038 RMK A01 T00221002  RH  084%=      5-min Rain = 0
KLO1 100251Z 33001KT 02/M00 A3038 RMK A01 T00211003  RH  084%=      5-min Rain = 0
KLO1 100252Z 34001KT 02/M01 A3038 RMK A01 T00191005  RH  084%=      5-min Rain = 0
KLO1 100253Z 32001KT 02/M01 A3039 RMK A01 T00171006  RH  085%=      5-min Rain = 0
KLO1 100254Z 33001KT 02/M01 A3039 RMK A01 T00171005  RH  085%=      5-min Rain = 0
KLO1 100255Z 33001KT 02/M00 A3039 RMK A01 T00171004  RH  086%=      5-min Rain = 0
KLO1 100256Z 32002KT 02/M00 A3039 RMK A01 T00171003  RH  086%=      5-min Rain = 0
KLO1 100257Z 33002KT 02/M00 A3039 RMK A01 T00171003  RH  086%=      5-min Rain = 0
KLO1 100258Z 34002KT 02/M00 A3039 RMK A01 T00171003  RH  087%=      5-min Rain = 0
KLO1 100259Z 35002KT 02/M00 A3039 RMK A01 T00171003  RH  087%=      5-min Rain = 0
KLO1 100300Z 35002KT 02/M00 A3039 RMK A01 T00171003  RH  087%=      5-min Rain = 0
KLO1 100301Z 33001KT 02/M00 A3039 RMK A01 T00171003  RH  087%=      5-min Rain = 0
KLO1 100302Z 34001KT 02/M00 A3039 RMK A01 T00161003  RH  087%=      5-min Rain = 0
KLO1 100303Z 36001KT 02/M00 A3039 RMK A01 T00161002  RH  088%=      5-min Rain = 0
KLO1 100304Z 35001KT 02/M00 A3038 RMK A01 T00171001  RH  088%=      5-min Rain = 0
KLO1 100305Z 34001KT 02/00 A3038 RMK A01 T001800-0  RH  088%=      5-min Rain = 0
KLO1 100306Z 33001KT 02/M00 A3038 RMK A01 T00181001  RH  087%=      5-min Rain = 0
KLO1 100307Z 32001KT 02/M00 A3038 RMK A01 T00171002  RH  087%=      5-min Rain = 0
KLO1 100308Z 33001KT 02/M00 A3038 RMK A01 T00171002  RH  087%=      5-min Rain = 0
KLO1 100309Z 32002KT 02/M00 A3038 RMK A01 T00171002  RH  087%=      5-min Rain = 0
KLO1 100310Z 31002KT 02/M00 A3039 RMK A01 T00161003  RH  087%=      5-min Rain = 0
KLO1 100311Z 32002KT 02/M00 A3039 RMK A01 T00161004  RH  087%=      5-min Rain = 0
KLO1 100312Z 32002KT 02/M00 A3039 RMK A01 T00151004  RH  088%=      5-min Rain = 0
KLO1 100313Z 32002KT 02/M00 A3039 RMK A01 T00151003  RH  088%=      5-min Rain = 0
KLO1 100314Z 32002KT 01/M00 A3039 RMK A01 T00141002  RH  089%=      5-min Rain = 0
KLO1 100315Z 32002KT 02/M00 A3039 RMK A01 T00151002  RH  089%=      5-min Rain = 0
KLO1 100316Z 31002KT 02/M00 A3039 RMK A01 T00151001  RH  089%=      5-min Rain = 0
KLO1 100317Z 31002KT 02/M00 A3039 RMK A01 T00151001  RH  089%=      5-min Rain = 0
KLO1 100318Z 30002KT 02/M00 A3039 RMK A01 T00151001  RH  089%=      5-min Rain = 0
KLO1 100319Z 30002KT 01/M00 A3039 RMK A01 T00141001  RH  089%=      5-min Rain = 0
KLO1 100320Z 30002KT 01/M00 A3039 RMK A01 T00141001  RH  089%=      5-min Rain = 0
KLO1 100321Z 30002KT 01/M00 A3039 RMK A01 T00141002  RH  089%=      5-min Rain = 0
KLO1 100322Z 29002KT 01/M00 A3039 RMK A01 T00131003  RH  089%=      5-min Rain = 0
KLO1 100323Z 29002KT 01/M01 A3039 RMK A01 T00121005  RH  088%=      5-min Rain = 0
KLO1 100324Z 31002KT 01/M01 A3039 RMK A01 T00111006  RH  088%=      5-min Rain = 0
KLO1 100325Z 32002KT 01/M01 A3039 RMK A01 T00111005  RH  089%=      5-min Rain = 0
KLO1 100326Z 31002KT 01/M01 A3039 RMK A01 T00101006  RH  089%=      5-min Rain = 0
KLO1 100327Z 31002KT 01/M01 A3039 RMK A01 T00101006  RH  089%=      5-min Rain = 0
KLO1 100328Z 31002KT 01/M01 A3039 RMK A01 T00091006  RH  089%=      5-min Rain = 0
KLO1 100329Z 33002KT 01/M01 A304 RMK A01 T00091006  RH  089%=      5-min Rain = 0
KLO1 100330Z 33002KT 01/M01 A304 RMK A01 T00091006  RH  090%=      5-min Rain = 0
KLO1 100331Z 33002KT 01/M01 A304 RMK A01 T00091006  RH  090%=      5-min Rain = 0
KLO1 100332Z 32002KT 01/M01 A304 RMK A01 T00091005  RH  090%=      5-min Rain = 0
KLO1 100333Z 32002KT 01/M00 A304 RMK A01 T00101003  RH  091%=      5-min Rain = 0
KLO1 100334Z 31002KT 01/M00 A304 RMK A01 T00111003  RH  091%=      5-min Rain = 0
KLO1 100335Z 32001KT 01/M00 A304 RMK A01 T00111003  RH  091%=      5-min Rain = 0
KLO1 100336Z 31002KT 01/M00 A304 RMK A01 T00111002  RH  091%=      5-min Rain = 0
KLO1 100337Z 33001KT 01/M00 A3039 RMK A01 T00111003  RH  090%=      5-min Rain = 0
KLO1 100338Z 34001KT 01/M00 A3039 RMK A01 T00111003  RH  090%=      5-min Rain = 0
KLO1 100339Z 35002KT 01/M00 A304 RMK A01 T00111003  RH  090%=      5-min Rain = 0
KLO1 100340Z 35002KT 01/M00 A304 RMK A01 T00111003  RH  090%=      5-min Rain = 0
KLO1 100341Z 35002KT 01/M00 A304 RMK A01 T00111003  RH  090%=      5-min Rain = 0
KLO1 100342Z 35003KT 01/M00 A304 RMK A01 T00111003  RH  090%=      5-min Rain = 0
KLO1 100343Z 35002KT 01/M00 A304 RMK A01 T00121003  RH  090%=      5-min Rain = 0
KLO1 100344Z 35002KT 01/M00 A304 RMK A01 T00121002  RH  090%=      5-min Rain = 0
KLO1 100345Z 36001KT 01/M00 A304 RMK A01 T00131001  RH  090%=      5-min Rain = 0
KLO1 100346Z 35001KT 01/M00 A304 RMK A01 T00131001  RH  090%=      5-min Rain = 0
KLO1 100347Z 35001KT 01/M00 A304 RMK A01 T00141001  RH  090%=      5-min Rain = 0
KLO1 100348Z 00001KT 01/M00 A304 RMK A01 T00141001  RH  090%=      5-min Rain = 0
KLO1 100349Z 00002KT 01/M00 A304 RMK A01 T00141001  RH  090%=      5-min Rain = 0
KLO1 100350Z 01002KT 01/M00 A304 RMK A01 T00141001  RH  090%=      5-min Rain = 0
KLO1 100351Z 01002KT 01/M00 A304 RMK A01 T00141001  RH  090%=      5-min Rain = 0
KLO1 100352Z 01002KT 01/M00 A304 RMK A01 T00141002  RH  089%=      5-min Rain = 0
KLO1 100353Z 01002KT 01/M00 A304 RMK A01 T00141002  RH  089%=      5-min Rain = 0
KLO1 100354Z 02002KT 01/M00 A304 RMK A01 T00131003  RH  089%=      5-min Rain = 0
KLO1 100355Z 01001KT 01/M00 A3039 RMK A01 T00131003  RH  089%=      5-min Rain = 0
KLO1 100356Z 02001KT 01/M00 A3039 RMK A01 T00121004  RH  089%=      5-min Rain = 0
KLO1 100357Z 02001KT 01/M00 A304 RMK A01 T00121004  RH  089%=      5-min Rain = 0
KLO1 100358Z 02001KT 01/M00 A304 RMK A01 T00121003  RH  089%=      5-min Rain = 0
KLO1 100359Z 01001KT 01/M00 A304 RMK A01 T00121003  RH  089%=      5-min Rain = 0
KLO1 100400Z 01002KT 01/M00 A304 RMK A01 T00131003  RH  089%=      5-min Rain = 0
KLO1 100401Z 01002KT 01/M00 A304 RMK A01 T00131003  RH  089%=      5-min Rain = 0
KLO1 100402Z 02001KT 01/M00 A304 RMK A01 T00131003  RH  089%=      5-min Rain = 0
KLO1 100403Z 02001KT 01/M00 A3039 RMK A01 T00131003  RH  089%=      5-min Rain = 0
KLO1 100404Z 02001KT 01/M00 A3039 RMK A01 T00131003  RH  089%=      5-min Rain = 0
KLO1 100405Z 02002KT 01/M00 A3039 RMK A01 T00121004  RH  089%=      5-min Rain = 0
KLO1 100406Z 02002KT 01/M00 A304 RMK A01 T00121004  RH  089%=      5-min Rain = 0
KLO1 100407Z 02002KT 01/M00 A304 RMK A01 T00121004  RH  089%=      5-min Rain = 0
KLO1 100408Z 02002KT 01/M01 A304 RMK A01 T00111005  RH  089%=      5-min Rain = 0
KLO1 100409Z 02002KT 01/M01 A304 RMK A01 T00111005  RH  089%=      5-min Rain = 0
KLO1 100410Z 02002KT 01/M01 A304 RMK A01 T00111005  RH  089%=      5-min Rain = 0
KLO1 100411Z 02003KT 01/M01 A304 RMK A01 T00111005  RH  089%=      5-min Rain = 0
KLO1 100412Z 02002KT 01/M01 A304 RMK A01 T00111005  RH  089%=      5-min Rain = 0
KLO1 100413Z 02002KT 01/M01 A304 RMK A01 T00111005  RH  089%=      5-min Rain = 0
KLO1 100414Z 01002KT 01/M00 A304 RMK A01 T00111004  RH  089%=      5-min Rain = 0
KLO1 100415Z 01002KT 01/M01 A304 RMK A01 T00111005  RH  089%=      5-min Rain = 0
KLO1 100416Z 01002KT 01/M01 A304 RMK A01 T00111005  RH  089%=      5-min Rain = 0
KLO1 100417Z 01002KT 01/M01 A304 RMK A01 T00111005  RH  089%=      5-min Rain = 0
KLO1 100418Z 01003KT 01/M01 A304 RMK A01 T00111005  RH  089%=      5-min Rain = 0
KLO1 100419Z 01003KT 01/M01 A304 RMK A01 T00111005  RH  089%=      5-min Rain = 0
KLO1 100420Z 02003KT 01/M00 A304 RMK A01 T00121004  RH  089%=      5-min Rain = 0
KLO1 100421Z 01003KT 01/M00 A304 RMK A01 T00121004  RH  089%=      5-min Rain = 0
KLO1 100422Z 01003KT 01/M00 A304 RMK A01 T00131004  RH  089%=      5-min Rain = 0
KLO1 100423Z 00003KT 01/M01 A3041 RMK A01 T00131005  RH  088%=      5-min Rain = 0
KLO1 100424Z 36003KT 01/M01 A3041 RMK A01 T00121006  RH  087%=      5-min Rain = 0
KLO1 100425Z 00003KT 01/M01 A3041 RMK A01 T00121008  RH  087%=      5-min Rain = 0
KLO1 100426Z 36003KT 01/M01 A3041 RMK A01 T00111008  RH  087%=      5-min Rain = 0
KLO1 100427Z 35004KT 01/M01 A3041 RMK A01 T00101009  RH  087%=      5-min Rain = 0
KLO1 100428Z 36004KT 01/M01 A3041 RMK A01 T00101009  RH  087%=      5-min Rain = 0
KLO1 100429Z 35005KT 01/M01 A3041 RMK A01 T00111008  RH  087%=      5-min Rain = 0
KLO1 100430Z 35005KT 01/M01 A3041 RMK A01 T00111008  RH  088%=      5-min Rain = 0
KLO1 100431Z 35004KT 01/M01 A3041 RMK A01 T00111008  RH  087%=      5-min Rain = 0
KLO1 100432Z 35004KT 01/M01 A3041 RMK A01 T00111008  RH  087%=      5-min Rain = 0
KLO1 100433Z 35004KT 01/M01 A3041 RMK A01 T00111008  RH  087%=      5-min Rain = 0
KLO1 100434Z 35004KT 01/M01 A3041 RMK A01 T00111009  RH  087%=      5-min Rain = 0
KLO1 100435Z 34004KT 01/M01 A3041 RMK A01 T00101010  RH  087%=      5-min Rain = 0
KLO1 100436Z 34004KT 01/M01 A304 RMK A01 T00091010  RH  087%=      5-min Rain = 0
KLO1 100437Z 34004KT 01/M01 A304 RMK A01 T00091011  RH  087%=      5-min Rain = 0
KLO1 100438Z 34004KT 01/M01 A3041 RMK A01 T00091010  RH  087%=      5-min Rain = 0
KLO1 100439Z 34004KT 01/M01 A3041 RMK A01 T00081010  RH  087%=      5-min Rain = 0
KLO1 100440Z 34004KT 01/M01 A3041 RMK A01 T00081010  RH  088%=      5-min Rain = 0
KLO1 100441Z 34004KT 01/M01 A3041 RMK A01 T00071011  RH  088%=      5-min Rain = 0
KLO1 100442Z 33004KT 01/M01 A3041 RMK A01 T00071011  RH  088%=      5-min Rain = 0
KLO1 100443Z 32004KT 01/M01 A3041 RMK A01 T00071010  RH  088%=      5-min Rain = 0
KLO1 100444Z 32003KT 01/M01 A3041 RMK A01 T00071010  RH  089%=      5-min Rain = 0
KLO1 100445Z 32003KT 01/M01 A3041 RMK A01 T00071009  RH  089%=      5-min Rain = 0
KLO1 100446Z 32003KT 01/M01 A3041 RMK A01 T00071009  RH  089%=      5-min Rain = 0
KLO1 100447Z 32003KT 01/M01 A304 RMK A01 T00081008  RH  089%=      5-min Rain = 0
KLO1 100448Z 32003KT 01/M01 A304 RMK A01 T00081008  RH  089%=      5-min Rain = 0
KLO1 100449Z 32003KT 01/M01 A304 RMK A01 T00091007  RH  089%=      5-min Rain = 0
KLO1 100450Z 32003KT 01/M01 A304 RMK A01 T00091008  RH  089%=      5-min Rain = 0
KLO1 100451Z 33003KT 01/M01 A304 RMK A01 T00091008  RH  089%=      5-min Rain = 0
KLO1 100452Z 33003KT 01/M01 A304 RMK A01 T00091008  RH  089%=      5-min Rain = 0
KLO1 100453Z 33003KT 01/M01 A3041 RMK A01 T00081008  RH  089%=      5-min Rain = 0
KLO1 100454Z 33003KT 01/M01 A3041 RMK A01 T00081008  RH  089%=      5-min Rain = 0
KLO1 100455Z 33003KT 01/M01 A3041 RMK A01 T00081008  RH  089%=      5-min Rain = 0
KLO1 100456Z 33003KT 01/M01 A3041 RMK A01 T00081009  RH  089%=      5-min Rain = 0
KLO1 100457Z 33003KT 01/M01 A3041 RMK A01 T00071009  RH  089%=      5-min Rain = 0
KLO1 100458Z 33003KT 01/M01 A3041 RMK A01 T00071009  RH  089%=      5-min Rain = 0
KLO1 100459Z 33003KT 01/M01 A3041 RMK A01 T00061009  RH  089%=      5-min Rain = 0
KLO1 100500Z 32003KT 01/M01 A3041 RMK A01 T00061009  RH  089%=      5-min Rain = 0
KLO1 100501Z 32003KT 01/M01 A3041 RMK A01 T00051010  RH  089%=      5-min Rain = 0
KLO1 100502Z 32003KT 01/M01 A3041 RMK A01 T00051010  RH  089%=      5-min Rain = 0
KLO1 100503Z 32002KT 01/M01 A3041 RMK A01 T00051010  RH  090%=      5-min Rain = 0
KLO1 100504Z 32002KT 01/M01 A3041 RMK A01 T00051010  RH  090%=      5-min Rain = 0
KLO1 100505Z 31002KT 01/M01 A3041 RMK A01 T00051009  RH  090%=      5-min Rain = 0
KLO1 100506Z 30001KT 01/M01 A304 RMK A01 T00051009  RH  090%=      5-min Rain = 0
KLO1 100507Z 29001KT 01/M01 A304 RMK A01 T00051010  RH  090%=      5-min Rain = 0
KLO1 100508Z 29001KT 00/M01 A304 RMK A01 T00021014  RH  089%=      5-min Rain = 0
KLO1 100509Z 29001KT 00/02 A304 RMK A01 T00000-15  RH  089%=      5-min Rain = 0
KLO1 100510Z 28000KT M00/M02 A304 RMK A01 T10011017  RH  089%=      5-min Rain = 0
KLO1 100511Z 27001KT M00/M02 A304 RMK A01 T10031019  RH  089%=      5-min Rain = 0
KLO1 100512Z 27001KT M01/M02 A3041 RMK A01 T10051021  RH  089%=      5-min Rain = 0
KLO1 100513Z 27001KT M01/M02 A3041 RMK A01 T10071022  RH  089%=      5-min Rain = 0
KLO1 100514Z 27001KT M01/M02 A3041 RMK A01 T10081023  RH  090%=      5-min Rain = 0
KLO1 100515Z 27001KT M01/M02 A3041 RMK A01 T10081023  RH  090%=      5-min Rain = 0
KLO1 100516Z 27001KT M01/M02 A304 RMK A01 T10091023  RH  090%=      5-min Rain = 0
KLO1 100517Z 27002KT M01/M02 A304 RMK A01 T10091022  RH  091%=      5-min Rain = 0
KLO1 100518Z 28002KT M01/M02 A304 RMK A01 T10091022  RH  091%=      5-min Rain = 0
KLO1 100519Z 28002KT M01/M02 A304 RMK A01 T10091022  RH  091%=      5-min Rain = 0
KLO1 100520Z 29002KT M01/M02 A304 RMK A01 T10091021  RH  091%=      5-min Rain = 0
KLO1 100521Z 29002KT M01/M02 A304 RMK A01 T10091021  RH  091%=      5-min Rain = 0
KLO1 100522Z 29001KT M01/M02 A3041 RMK A01 T10091021  RH  091%=      5-min Rain = 0
KLO1 100523Z 30002KT M01/M02 A304 RMK A01 T10091021  RH  091%=      5-min Rain = 0
KLO1 100524Z 30002KT M01/M02 A304 RMK A01 T10091022  RH  091%=      5-min Rain = 0
KLO1 100525Z 30001KT M01/M02 A304 RMK A01 T10091021  RH  092%=      5-min Rain = 0
KLO1 100526Z 29001KT M01/M02 A304 RMK A01 T10091021  RH  092%=      5-min Rain = 0
KLO1 100527Z 29001KT M01/M02 A304 RMK A01 T10091020  RH  092%=      5-min Rain = 0
KLO1 100528Z 28001KT M01/M02 A304 RMK A01 T10091021  RH  092%=      5-min Rain = 0
KLO1 100529Z 27001KT M01/M02 A304 RMK A01 T10091020  RH  092%=      5-min Rain = 0
KLO1 100530Z 27001KT M01/M02 A304 RMK A01 T10091021  RH  092%=      5-min Rain = 0
KLO1 100531Z 26001KT M01/M02 A304 RMK A01 T10091021  RH  092%=      5-min Rain = 0
KLO1 100532Z 26001KT M01/M02 A304 RMK A01 T10091020  RH  092%=      5-min Rain = 0
KLO1 100533Z 26001KT M01/M02 A304 RMK A01 T10091021  RH  092%=      5-min Rain = 0
KLO1 100534Z 26001KT M01/M02 A304 RMK A01 T10091020  RH  092%=      5-min Rain = 0
KLO1 100535Z 26002KT M01/M02 A304 RMK A01 T10081019  RH  092%=      5-min Rain = 0
KLO1 100536Z 26002KT M01/M02 A304 RMK A01 T10081019  RH  092%=      5-min Rain = 0
KLO1 100537Z 25002KT M01/M02 A304 RMK A01 T10071018  RH  093%=      5-min Rain = 0
KLO1 100538Z 25002KT M01/M02 A304 RMK A01 T10071017  RH  093%=      5-min Rain = 0
KLO1 100539Z 25002KT M01/M02 A304 RMK A01 T10061017  RH  093%=      5-min Rain = 0
KLO1 100540Z 26002KT M01/M02 A304 RMK A01 T10071017  RH  093%=      5-min Rain = 0
KLO1 100541Z 27001KT M01/M02 A304 RMK A01 T10061017  RH  093%=      5-min Rain = 0
KLO1 100542Z 27002KT M01/M02 A304 RMK A01 T10071018  RH  093%=      5-min Rain = 0
KLO1 100543Z 28002KT M01/M02 A304 RMK A01 T10071018  RH  093%=      5-min Rain = 0
KLO1 100544Z 28002KT M01/M02 A304 RMK A01 T10071018  RH  093%=      5-min Rain = 0
KLO1 100545Z 27002KT M01/M02 A304 RMK A01 T10071018  RH  093%=      5-min Rain = 0
KLO1 100546Z 27002KT M01/M02 A304 RMK A01 T10081018  RH  093%=      5-min Rain = 0
KLO1 100547Z 27003KT M01/M02 A304 RMK A01 T10081019  RH  093%=      5-min Rain = 0
KLO1 100548Z 26003KT M01/M02 A304 RMK A01 T10091019  RH  093%=      5-min Rain = 0
KLO1 100549Z 27003KT M01/M02 A304 RMK A01 T10091020  RH  093%=      5-min Rain = 0
KLO1 100550Z 27003KT M01/M02 A304 RMK A01 T10091020  RH  093%=      5-min Rain = 0
KLO1 100551Z 28003KT M01/M02 A304 RMK A01 T10091020  RH  093%=      5-min Rain = 0
KLO1 100552Z 28004KT M01/M02 A304 RMK A01 T10091019  RH  093%=      5-min Rain = 0
KLO1 100553Z 28004KT M01/M02 A304 RMK A01 T10091019  RH  093%=      5-min Rain = 0
KLO1 100554Z 28004KT M01/M02 A304 RMK A01 T10091019  RH  093%=      5-min Rain = 0
KLO1 100555Z 28004KT M01/M02 A304 RMK A01 T10091019  RH  093%=      5-min Rain = 0
KLO1 100556Z 28004KT M01/M02 A304 RMK A01 T10091019  RH  093%=      5-min Rain = 0
KLO1 100557Z 28004KT M01/M02 A304 RMK A01 T10091019  RH  093%=      5-min Rain = 0
KLO1 100558Z 28004KT M01/M02 A304 RMK A01 T10091019  RH  093%=      5-min Rain = 0
KLO1 100559Z 27003KT M01/M02 A304 RMK A01 T10091019  RH  093%=      5-min Rain = 0

Page generated in 0.1766 seconds.